Time,TemperatureF,DewpointF,PressureIn,WindDirection,WindDirectionDegrees,WindSpeedMPH,WindSpeedGustMPH,Humidity,HourlyPrecipIn,Conditions,Clouds,dailyrainin,SolarRadiationWatts/m^2,SoftwareType,DateUTC
2013-01-11 00:01:00,30.3,23.3,30.48,NNE,28,0.0,4.0,75,0.00,,CLR,0.00,0.00,VWS V14.01,2013-01-11 05:01:00,
2013-01-11 00:05:00,30.0,23.7,30.48,ENE,58,0.0,4.0,77,0.00,,CLR,0.00,0.00,VWS V14.01,2013-01-11 05:05:00,
2013-01-11 00:08:00,29.8,23.5,30.48,ENE,58,1.0,1.0,77,0.00,,CLR,0.00,0.00,VWS V14.01,2013-01-11 05:08:00,
2013-01-11 00:11:00,29.5,22.9,30.48,East,98,0.0,1.0,76,0.00,,CLR,0.00,0.00,VWS V14.01,2013-01-11 05:11:00,
2013-01-11 00:13:00,29.3,22.7,30.48,ESE,110,0.0,2.0,76,0.00,,CLR,0.00,0.00,VWS V14.01,2013-01-11 05:13:00,
2013-01-11 00:15:00,29.1,22.8,30.48,ESE,110,0.0,2.0,77,0.00,,CLR,0.00,0.00,VWS V14.01,2013-01-11 05:15:00,
2013-01-11 00:16:00,29.1,23.1,30.48,ESE,110,0.0,2.0,78,0.00,,CLR,0.00,0.00,VWS V14.01,2013-01-11 05:16:00,
2013-01-11 00:18:00,29.0,23.0,30.48,ESE,110,0.0,2.0,78,0.00,,CLR,0.00,0.00,VWS V14.01,2013-01-11 05:18:00,
2013-01-11 00:20:00,29.0,23.0,30.48,ESE,110,0.0,2.0,78,0.00,,CLR,0.00,0.00,VWS V14.01,2013-01-11 05:20:00,
2013-01-11 00:22:00,28.9,22.6,30.48,ESE,110,0.0,2.0,77,0.00,,CLR,0.00,0.00,VWS V14.01,2013-01-11 05:22:00,
2013-01-11 00:27:00,28.7,22.4,30.48,ESE,110,0.0,2.0,77,0.00,,CLR,0.00,0.00,VWS V14.01,2013-01-11 05:27:00,
2013-01-11 00:30:00,28.5,22.5,30.47,ESE,110,0.0,2.0,78,0.00,,CLR,0.00,0.00,VWS V14.01,2013-01-11 05:30:00,
2013-01-11 00:32:00,28.3,22.3,30.47,ESE,110,0.0,2.0,78,0.00,,CLR,0.00,0.00,VWS V14.01,2013-01-11 05:32:00,
2013-01-11 00:34:00,28.2,22.2,30.47,ESE,110,0.0,2.0,78,0.00,,CLR,0.00,0.00,VWS V14.01,2013-01-11 05:34:00,
2013-01-11 00:35:00,28.1,22.1,30.47,ESE,110,0.0,2.0,78,0.00,,CLR,0.00,0.00,VWS V14.01,2013-01-11 05:35:00,
2013-01-11 00:39:00,28.1,22.1,30.47,ESE,110,0.0,2.0,78,0.00,,CLR,0.00,0.00,VWS V14.01,2013-01-11 05:39:00,
2013-01-11 00:40:00,28.0,22.3,30.47,ESE,106,0.0,2.0,79,0.00,,CLR,0.00,0.00,VWS V14.01,2013-01-11 05:40:00,
2013-01-11 00:44:00,28.0,22.3,30.46,North,355,0.0,2.0,79,0.00,,CLR,0.00,0.00,VWS V14.01,2013-01-11 05:44:00,
2013-01-11 00:47:00,28.0,22.3,30.46,North,350,0.0,2.0,79,0.00,,CLR,0.00,0.00,VWS V14.01,2013-01-11 05:47:00,
2013-01-11 00:49:00,28.0,22.3,30.46,North,350,0.0,2.0,79,0.00,,CLR,0.00,0.00,VWS V14.01,2013-01-11 05:49:00,
2013-01-11 00:51:00,28.0,22.3,30.46,North,350,0.0,2.0,79,0.00,,CLR,0.00,0.00,VWS V14.01,2013-01-11 05:51:00,
2013-01-11 00:56:00,27.9,22.2,30.46,North,350,0.0,2.0,79,0.00,,CLR,0.00,0.00,VWS V14.01,2013-01-11 05:56:00,
2013-01-11 00:57:00,27.9,22.2,30.46,North,350,0.0,2.0,79,0.00,,CLR,0.00,0.00,VWS V14.01,2013-01-11 05:57:00,
2013-01-11 00:59:00,27.9,22.2,30.46,North,350,0.0,2.0,79,0.00,,CLR,0.00,0.00,VWS V14.01,2013-01-11 05:59:00,
2013-01-11 01:03:00,27.8,22.1,30.46,North,350,0.0,2.0,79,0.00,,CLR,0.00,0.00,VWS V14.01,2013-01-11 06:03:00,
2013-01-11 01:05:00,27.8,22.1,30.46,North,350,0.0,2.0,79,0.00,,CLR,0.00,0.00,VWS V14.01,2013-01-11 06:05:00,
2013-01-11 01:08:00,27.7,22.0,30.46,North,350,0.0,0.0,79,0.00,,CLR,0.00,0.00,VWS V14.01,2013-01-11 06:08:00,
2013-01-11 01:13:00,27.6,22.2,30.47,North,350,0.0,0.0,80,0.00,,CLR,0.00,0.00,VWS V14.01,2013-01-11 06:13:00,
2013-01-11 01:16:00,27.6,22.2,30.47,North,350,0.0,0.0,80,0.00,,CLR,0.00,0.00,VWS V14.01,2013-01-11 06:16:00,
2013-01-11 01:22:00,27.4,22.0,30.46,North,350,0.0,0.0,80,0.00,,CLR,0.00,0.00,VWS V14.01,2013-01-11 06:22:00,
2013-01-11 01:25:00,27.4,22.0,30.46,North,350,0.0,0.0,80,0.00,,CLR,0.00,0.00,VWS V14.01,2013-01-11 06:25:00,
2013-01-11 01:27:00,27.4,22.0,30.46,North,350,0.0,1.0,80,0.00,,CLR,0.00,0.00,VWS V14.01,2013-01-11 06:27:00,
2013-01-11 01:28:00,27.4,22.0,30.46,North,350,0.0,1.0,80,0.00,,CLR,0.00,0.00,VWS V14.01,2013-01-11 06:28:00,
2013-01-11 01:30:00,27.4,22.0,30.45,North,350,0.0,1.0,80,0.00,,CLR,0.00,0.00,VWS V14.01,2013-01-11 06:30:00,
2013-01-11 01:33:00,27.2,21.9,30.45,North,350,0.0,1.0,80,0.00,,CLR,0.00,0.00,VWS V14.01,2013-01-11 06:33:00,
2013-01-11 01:35:00,27.2,21.9,30.46,North,350,0.0,1.0,80,0.00,,CLR,0.00,0.00,VWS V14.01,2013-01-11 06:35:00,
2013-01-11 01:39:00,27.1,22.1,30.45,North,350,0.0,1.0,81,0.00,,CLR,0.00,0.00,VWS V14.01,2013-01-11 06:39:00,
2013-01-11 01:40:00,27.1,22.1,30.45,North,350,0.0,1.0,81,0.00,,CLR,0.00,0.00,VWS V14.01,2013-01-11 06:40:00,
2013-01-11 01:42:00,27.1,22.1,30.45,North,350,0.0,1.0,81,0.00,,CLR,0.00,0.00,VWS V14.01,2013-01-11 06:42:00,
2013-01-11 01:44:00,27.1,22.1,30.45,North,350,0.0,1.0,81,0.00,,CLR,0.00,0.00,VWS V14.01,2013-01-11 06:44:00,
2013-01-11 01:45:00,27.1,22.1,30.45,North,350,0.0,1.0,81,0.00,,CLR,0.00,0.00,VWS V14.01,2013-01-11 06:45:00,
2013-01-11 01:47:00,27.1,22.1,30.45,North,350,0.0,1.0,81,0.00,,CLR,0.00,0.00,VWS V14.01,2013-01-11 06:47:00,
2013-01-11 01:51:00,27.2,22.4,30.45,North,350,0.0,1.0,82,0.00,,CLR,0.00,0.00,VWS V14.01,2013-01-11 06:51:00,
2013-01-11 01:52:00,27.2,22.4,30.45,North,350,0.0,1.0,82,0.00,,CLR,0.00,0.00,VWS V14.01,2013-01-11 06:52:00,
2013-01-11 01:56:00,27.2,22.4,30.45,North,350,0.0,1.0,82,0.00,,CLR,0.00,0.00,VWS V14.01,2013-01-11 06:56:00,
2013-01-11 02:01:00,27.2,22.1,30.45,North,350,0.0,1.0,81,0.00,,CLR,0.00,0.00,VWS V14.01,2013-01-11 07:01:00,
2013-01-11 02:02:00,27.1,22.1,30.45,North,350,0.0,1.0,81,0.00,,CLR,0.00,0.00,VWS V14.01,2013-01-11 07:02:00,
2013-01-11 02:05:00,27.1,22.1,30.46,North,350,0.0,1.0,81,0.00,,CLR,0.00,0.00,VWS V14.01,2013-01-11 07:05:00,
2013-01-11 02:11:00,27.1,22.4,30.45,North,350,0.0,0.0,82,0.00,,CLR,0.00,0.00,VWS V14.01,2013-01-11 07:11:00,
2013-01-11 02:13:00,27.1,22.4,30.45,North,350,0.0,0.0,82,0.00,,CLR,0.00,0.00,VWS V14.01,2013-01-11 07:13:00,
2013-01-11 02:16:00,27.1,22.4,30.45,North,350,0.0,1.0,82,0.00,,CLR,0.00,0.00,VWS V14.01,2013-01-11 07:16:00,
2013-01-11 02:21:00,26.7,21.4,30.46,North,350,0.0,1.0,80,0.00,,CLR,0.00,0.00,VWS V14.01,2013-01-11 07:21:00,
2013-01-11 02:24:00,26.5,21.2,30.45,North,350,0.0,1.0,80,0.00,,CLR,0.00,0.00,VWS V14.01,2013-01-11 07:24:00,
2013-01-11 02:26:00,26.4,21.1,30.45,North,350,0.0,1.0,80,0.00,,CLR,0.00,0.00,VWS V14.01,2013-01-11 07:26:00,
2013-01-11 02:30:00,26.2,21.2,30.45,North,350,0.0,1.0,81,0.00,,CLR,0.00,0.00,VWS V14.01,2013-01-11 07:30:00,
2013-01-11 02:33:00,26.1,21.4,30.45,North,350,0.0,1.0,82,0.00,,CLR,0.00,0.00,VWS V14.01,2013-01-11 07:33:00,
2013-01-11 02:36:00,26.0,21.3,30.45,North,350,0.0,1.0,82,0.00,,CLR,0.00,0.00,VWS V14.01,2013-01-11 07:36:00,
2013-01-11 02:38:00,26.0,21.3,30.45,North,350,0.0,1.0,82,0.00,,CLR,0.00,0.00,VWS V14.01,2013-01-11 07:38:00,
2013-01-11 02:40:00,26.0,21.3,30.45,North,350,0.0,1.0,82,0.00,,CLR,0.00,0.00,VWS V14.01,2013-01-11 07:40:00,
2013-01-11 02:42:00,25.9,21.2,30.44,North,350,0.0,1.0,82,0.00,,CLR,0.00,0.00,VWS V14.01,2013-01-11 07:42:00,
2013-01-11 02:45:00,25.9,21.5,30.44,North,350,0.0,1.0,83,0.00,,CLR,0.00,0.00,VWS V14.01,2013-01-11 07:45:00,
2013-01-11 02:47:00,25.8,21.1,30.44,North,350,0.0,1.0,82,0.00,,CLR,0.00,0.00,VWS V14.01,2013-01-11 07:47:00,
2013-01-11 02:48:00,25.8,21.1,30.44,North,350,0.0,1.0,82,0.00,,CLR,0.00,0.00,VWS V14.01,2013-01-11 07:48:00,
2013-01-11 02:50:00,25.7,21.0,30.44,North,350,0.0,1.0,82,0.00,,CLR,0.00,0.00,VWS V14.01,2013-01-11 07:50:00,
2013-01-11 02:52:00,25.6,20.9,30.44,North,350,0.0,1.0,82,0.00,,CLR,0.00,0.00,VWS V14.01,2013-01-11 07:52:00,
2013-01-11 02:55:00,25.5,21.1,30.44,North,350,0.0,1.0,83,0.00,,CLR,0.00,0.00,VWS V14.01,2013-01-11 07:55:00,
2013-01-11 02:57:00,25.5,21.1,30.44,North,350,0.0,1.0,83,0.00,,CLR,0.00,0.00,VWS V14.01,2013-01-11 07:57:00,
2013-01-11 02:59:00,25.4,21.0,30.44,WNW,286,1.0,1.0,83,0.00,,CLR,0.00,0.00,VWS V14.01,2013-01-11 07:59:00,
2013-01-11 03:00:00,25.3,20.9,30.44,West,279,1.0,2.0,83,0.00,,CLR,0.00,0.00,VWS V14.01,2013-01-11 08:00:00,
2013-01-11 03:02:00,25.2,20.5,30.44,West,279,0.0,2.0,82,0.00,,CLR,0.00,0.00,VWS V14.01,2013-01-11 08:02:00,
2013-01-11 03:04:00,25.0,20.3,30.44,West,279,0.0,2.0,82,0.00,,CLR,0.00,0.00,VWS V14.01,2013-01-11 08:04:00,
2013-01-11 03:06:00,25.0,20.6,30.44,West,279,0.0,0.0,83,0.00,,CLR,0.00,0.00,VWS V14.01,2013-01-11 08:06:00,
2013-01-11 03:07:00,24.9,20.5,30.44,West,279,0.0,0.0,83,0.00,,CLR,0.00,0.00,VWS V14.01,2013-01-11 08:07:00,
2013-01-11 03:11:00,24.9,20.5,30.44,West,279,0.0,0.0,83,0.00,,CLR,0.00,0.00,VWS V14.01,2013-01-11 08:11:00,
2013-01-11 03:12:00,24.7,20.0,30.44,West,279,0.0,0.0,82,0.00,,CLR,0.00,0.00,VWS V14.01,2013-01-11 08:12:00,
2013-01-11 03:16:00,24.5,20.1,30.43,West,279,0.0,0.0,83,0.00,,CLR,0.00,0.00,VWS V14.01,2013-01-11 08:16:00,
2013-01-11 03:21:00,24.4,20.0,30.43,West,279,0.0,0.0,83,0.00,,CLR,0.00,0.00,VWS V14.01,2013-01-11 08:21:00,
2013-01-11 03:23:00,24.4,20.0,30.43,West,279,0.0,0.0,83,0.00,,CLR,0.00,0.00,VWS V14.01,2013-01-11 08:23:00,
2013-01-11 03:24:00,24.3,20.2,30.43,West,279,0.0,0.0,84,0.00,,CLR,0.00,0.00,VWS V14.01,2013-01-11 08:24:00,
2013-01-11 03:28:00,24.2,20.1,30.43,West,279,0.0,0.0,84,0.00,,CLR,0.00,0.00,VWS V14.01,2013-01-11 08:28:00,
2013-01-11 03:31:00,24.1,20.0,30.43,West,279,0.0,0.0,84,0.00,,CLR,0.00,0.00,VWS V14.01,2013-01-11 08:31:00,
2013-01-11 03:33:00,24.1,20.0,30.43,West,279,0.0,0.0,84,0.00,,CLR,0.00,0.00,VWS V14.01,2013-01-11 08:33:00,
2013-01-11 03:38:00,23.8,19.7,30.43,West,279,0.0,0.0,84,0.00,,CLR,0.00,0.00,VWS V14.01,2013-01-11 08:38:00,
2013-01-11 03:40:00,23.7,19.6,30.43,West,279,0.0,0.0,84,0.00,,CLR,0.00,0.00,VWS V14.01,2013-01-11 08:40:00,
2013-01-11 03:43:00,23.5,19.4,30.43,West,279,0.0,0.0,84,0.00,,CLR,0.00,0.00,VWS V14.01,2013-01-11 08:43:00,
2013-01-11 03:48:00,23.3,19.2,30.44,West,279,0.0,0.0,84,0.00,,CLR,0.00,0.00,VWS V14.01,2013-01-11 08:48:00,
2013-01-11 03:52:00,23.2,19.4,30.44,West,279,0.0,0.0,85,0.00,,CLR,0.00,0.00,VWS V14.01,2013-01-11 08:52:00,
2013-01-11 03:55:00,23.2,19.4,30.44,West,279,0.0,0.0,85,0.00,,CLR,0.00,0.00,VWS V14.01,2013-01-11 08:55:00,
2013-01-11 03:57:00,23.2,19.4,30.43,West,279,0.0,0.0,85,0.00,,CLR,0.00,0.00,VWS V14.01,2013-01-11 08:57:00,
2013-01-11 04:00:00,23.3,19.7,30.44,West,279,0.0,1.0,86,0.00,,CLR,0.00,0.00,VWS V14.01,2013-01-11 09:00:00,
2013-01-11 04:02:00,23.3,19.5,30.44,West,279,0.0,1.0,85,0.00,,CLR,0.00,0.00,VWS V14.01,2013-01-11 09:02:00,
2013-01-11 04:05:00,23.1,19.5,30.43,West,279,0.0,0.0,86,0.00,,CLR,0.00,0.00,VWS V14.01,2013-01-11 09:05:00,
2013-01-11 04:07:00,23.2,19.6,30.43,West,279,0.0,0.0,86,0.00,,CLR,0.00,0.00,VWS V14.01,2013-01-11 09:07:00,
2013-01-11 04:12:00,23.1,19.5,30.42,West,279,0.0,0.0,86,0.00,,CLR,0.00,0.00,VWS V14.01,2013-01-11 09:12:00,
2013-01-11 04:14:00,23.1,19.5,30.42,West,279,0.0,0.0,86,0.00,,CLR,0.00,0.00,VWS V14.01,2013-01-11 09:14:00,
2013-01-11 04:15:00,23.1,19.5,30.42,West,279,0.0,0.0,86,0.00,,CLR,0.00,0.00,VWS V14.01,2013-01-11 09:15:00,
2013-01-11 04:19:00,23.1,19.8,30.42,West,279,0.0,0.0,87,0.00,,CLR,0.00,0.00,VWS V14.01,2013-01-11 09:19:00,
2013-01-11 04:21:00,23.2,19.9,30.42,West,279,0.0,0.0,87,0.00,,CLR,0.00,0.00,VWS V14.01,2013-01-11 09:21:00,
2013-01-11 04:22:00,23.2,19.9,30.42,West,279,0.0,0.0,87,0.00,,CLR,0.00,0.00,VWS V14.01,2013-01-11 09:22:00,
2013-01-11 04:26:00,23.3,20.0,30.42,West,279,0.0,0.0,87,0.00,,CLR,0.00,0.00,VWS V14.01,2013-01-11 09:26:00,
2013-01-11 04:27:00,23.3,20.0,30.42,West,279,0.0,0.0,87,0.00,,CLR,0.00,0.00,VWS V14.01,2013-01-11 09:27:00,
2013-01-11 04:32:00,23.1,19.8,30.42,West,279,0.0,0.0,87,0.00,,CLR,0.00,0.00,VWS V14.01,2013-01-11 09:32:00,
2013-01-11 04:34:00,23.2,19.9,30.42,West,279,0.0,0.0,87,0.00,,CLR,0.00,0.00,VWS V14.01,2013-01-11 09:34:00,
2013-01-11 04:36:00,23.1,19.8,30.42,West,280,0.0,0.0,87,0.00,,CLR,0.00,0.00,VWS V14.01,2013-01-11 09:36:00,
2013-01-11 04:39:00,23.0,19.7,30.42,West,279,0.0,0.0,87,0.00,,CLR,0.00,0.00,VWS V14.01,2013-01-11 09:39:00,
2013-01-11 04:41:00,23.0,19.7,30.42,West,279,0.0,0.0,87,0.00,,CLR,0.00,0.00,VWS V14.01,2013-01-11 09:41:00,
2013-01-11 04:43:00,23.0,19.7,30.42,West,279,0.0,0.0,87,0.00,,CLR,0.00,0.00,VWS V14.01,2013-01-11 09:43:00,
2013-01-11 04:44:00,23.0,19.7,30.42,West,279,0.0,0.0,87,0.00,,CLR,0.00,0.00,VWS V14.01,2013-01-11 09:44:00,
2013-01-11 04:46:00,23.0,19.7,30.42,West,279,0.0,0.0,87,0.00,,CLR,0.00,0.00,VWS V14.01,2013-01-11 09:46:00,
2013-01-11 04:48:00,23.0,19.7,30.42,West,279,0.0,0.0,87,0.00,,CLR,0.00,0.00,VWS V14.01,2013-01-11 09:48:00,
2013-01-11 04:49:00,22.9,19.6,30.42,West,279,0.0,0.0,87,0.00,,CLR,0.00,0.00,VWS V14.01,2013-01-11 09:49:00,
2013-01-11 04:53:00,22.7,19.4,30.42,West,279,0.0,0.0,87,0.00,,CLR,0.00,0.00,VWS V14.01,2013-01-11 09:53:00,
2013-01-11 04:54:00,22.7,19.4,30.42,West,279,0.0,0.0,87,0.00,,CLR,0.00,0.00,VWS V14.01,2013-01-11 09:54:00,
2013-01-11 04:56:00,22.7,19.4,30.42,West,279,0.0,0.0,87,0.00,,CLR,0.00,0.00,VWS V14.01,2013-01-11 09:56:00,
2013-01-11 05:01:00,22.8,19.5,30.42,West,279,0.0,0.0,87,0.00,,CLR,0.00,0.00,VWS V14.01,2013-01-11 10:01:00,
2013-01-11 05:03:00,22.8,19.8,30.42,West,279,0.0,0.0,88,0.00,,CLR,0.00,0.00,VWS V14.01,2013-01-11 10:03:00,
2013-01-11 05:05:00,22.9,19.9,30.42,West,279,0.0,0.0,88,0.00,,CLR,0.00,0.00,VWS V14.01,2013-01-11 10:05:00,
2013-01-11 05:08:00,22.9,19.9,30.42,West,279,0.0,0.0,88,0.00,,CLR,0.00,0.00,VWS V14.01,2013-01-11 10:08:00,
2013-01-11 05:12:00,22.9,19.9,30.42,West,279,0.0,0.0,88,0.00,,CLR,0.00,0.00,VWS V14.01,2013-01-11 10:12:00,
2013-01-11 05:13:00,23.0,20.0,30.42,West,279,0.0,0.0,88,0.00,,CLR,0.00,0.00,VWS V14.01,2013-01-11 10:13:00,
2013-01-11 05:17:00,22.9,19.9,30.43,West,279,0.0,0.0,88,0.00,,CLR,0.00,0.00,VWS V14.01,2013-01-11 10:17:00,
2013-01-11 05:20:00,22.9,19.9,30.43,West,279,0.0,0.0,88,0.00,,CLR,0.00,0.00,VWS V14.01,2013-01-11 10:20:00,
2013-01-11 05:22:00,22.9,19.9,30.43,West,279,0.0,0.0,88,0.00,,CLR,0.00,0.00,VWS V14.01,2013-01-11 10:22:00,
2013-01-11 05:24:00,23.0,20.0,30.42,West,279,0.0,0.0,88,0.00,,CLR,0.00,0.00,VWS V14.01,2013-01-11 10:24:00,
2013-01-11 05:25:00,22.9,19.9,30.42,West,279,0.0,0.0,88,0.00,,CLR,0.00,0.00,VWS V14.01,2013-01-11 10:25:00,
2013-01-11 05:29:00,22.8,19.8,30.43,West,279,0.0,1.0,88,0.00,,CLR,0.00,0.00,VWS V14.01,2013-01-11 10:29:00,
2013-01-11 05:30:00,22.8,19.8,30.43,West,279,0.0,1.0,88,0.00,,CLR,0.00,0.00,VWS V14.01,2013-01-11 10:30:00,
2013-01-11 05:34:00,22.9,20.1,30.42,West,279,0.0,1.0,89,0.00,,CLR,0.00,0.00,VWS V14.01,2013-01-11 10:34:00,
2013-01-11 05:37:00,22.9,20.1,30.42,West,279,0.0,1.0,89,0.00,,CLR,0.00,0.00,VWS V14.01,2013-01-11 10:37:00,
2013-01-11 05:41:00,23.0,20.2,30.43,West,279,0.0,1.0,89,0.00,,CLR,0.00,0.00,VWS V14.01,2013-01-11 10:41:00,
2013-01-11 05:44:00,23.0,20.2,30.42,West,279,0.0,1.0,89,0.00,,CLR,0.00,0.00,VWS V14.01,2013-01-11 10:44:00,
2013-01-11 05:46:00,23.0,20.2,30.42,West,279,0.0,1.0,89,0.00,,CLR,0.00,0.00,VWS V14.01,2013-01-11 10:46:00,
2013-01-11 05:51:00,23.0,20.2,30.42,West,279,0.0,1.0,89,0.00,,CLR,0.00,0.00,VWS V14.01,2013-01-11 10:51:00,
2013-01-11 05:56:00,22.8,19.8,30.43,West,279,0.0,1.0,88,0.00,,CLR,0.00,0.00,VWS V14.01,2013-01-11 10:56:00,
2013-01-11 06:01:00,22.7,20.0,30.43,West,279,0.0,1.0,89,0.00,,CLR,0.00,0.00,VWS V14.01,2013-01-11 11:01:00,
2013-01-11 06:03:00,22.7,20.0,30.43,West,279,0.0,1.0,89,0.00,,CLR,0.00,0.00,VWS V14.01,2013-01-11 11:03:00,
2013-01-11 06:05:00,22.8,20.0,30.43,West,279,0.0,1.0,89,0.00,,CLR,0.00,0.00,VWS V14.01,2013-01-11 11:05:00,
2013-01-11 06:10:00,22.7,20.0,30.43,West,279,0.0,0.0,89,0.00,,CLR,0.00,0.00,VWS V14.01,2013-01-11 11:10:00,
2013-01-11 06:13:00,22.8,20.0,30.43,West,279,0.0,0.0,89,0.00,,CLR,0.00,0.00,VWS V14.01,2013-01-11 11:13:00,
2013-01-11 06:15:00,22.8,20.0,30.43,West,279,0.0,0.0,89,0.00,,CLR,0.00,0.00,VWS V14.01,2013-01-11 11:15:00,
2013-01-11 06:18:00,22.9,20.1,30.43,West,279,0.0,0.0,89,0.00,,CLR,0.00,0.00,VWS V14.01,2013-01-11 11:18:00,
2013-01-11 06:22:00,23.0,20.2,30.43,West,279,0.0,0.0,89,0.00,,CLR,0.00,0.00,VWS V14.01,2013-01-11 11:22:00,
2013-01-11 06:23:00,23.0,20.2,30.43,West,279,0.0,0.0,89,0.00,,CLR,0.00,0.00,VWS V14.01,2013-01-11 11:23:00,
2013-01-11 06:27:00,23.1,20.4,30.44,West,279,0.0,0.0,89,0.00,,CLR,0.00,0.00,VWS V14.01,2013-01-11 11:27:00,
2013-01-11 06:28:00,23.1,20.4,30.44,West,279,0.0,0.0,89,0.00,,CLR,0.00,0.00,VWS V14.01,2013-01-11 11:28:00,
2013-01-11 06:30:00,23.1,20.4,30.44,West,279,0.0,0.0,89,0.00,,CLR,0.00,0.00,VWS V14.01,2013-01-11 11:30:00,
2013-01-11 06:34:00,23.1,20.4,30.44,West,279,0.0,0.0,89,0.00,,CLR,0.00,0.00,VWS V14.01,2013-01-11 11:34:00,
2013-01-11 06:35:00,23.1,20.4,30.44,West,279,0.0,0.0,89,0.00,,CLR,0.00,0.00,VWS V14.01,2013-01-11 11:35:00,
2013-01-11 06:37:00,23.2,20.5,30.44,West,279,0.0,0.0,89,0.00,,CLR,0.00,0.00,VWS V14.01,2013-01-11 11:37:00,
2013-01-11 06:39:00,23.2,20.5,30.44,West,279,0.0,0.0,89,0.00,,CLR,0.00,0.00,VWS V14.01,2013-01-11 11:39:00,
2013-01-11 06:40:00,23.3,20.8,30.44,West,279,0.0,0.0,90,0.00,,CLR,0.00,0.00,VWS V14.01,2013-01-11 11:40:00,
2013-01-11 06:42:00,23.3,20.8,30.44,West,279,0.0,0.0,90,0.00,,CLR,0.00,0.00,VWS V14.01,2013-01-11 11:42:00,
2013-01-11 06:44:00,23.4,20.9,30.44,West,279,0.0,0.0,90,0.00,,CLR,0.00,0.00,VWS V14.01,2013-01-11 11:44:00,
2013-01-11 06:45:00,23.4,20.9,30.43,West,279,0.0,0.0,90,0.00,,CLR,0.00,0.00,VWS V14.01,2013-01-11 11:45:00,
2013-01-11 06:49:00,23.5,21.0,30.44,West,279,0.0,0.0,90,0.00,,CLR,0.00,0.00,VWS V14.01,2013-01-11 11:49:00,
2013-01-11 06:51:00,23.5,21.0,30.44,West,279,0.0,0.0,90,0.00,,CLR,0.00,0.00,VWS V14.01,2013-01-11 11:51:00,
2013-01-11 06:54:00,23.6,21.1,30.44,West,279,0.0,0.0,90,0.00,,CLR,0.00,0.00,VWS V14.01,2013-01-11 11:54:00,
2013-01-11 06:56:00,23.6,21.1,30.44,West,279,0.0,0.0,90,0.00,,CLR,0.00,0.00,VWS V14.01,2013-01-11 11:56:00,
2013-01-11 07:01:00,23.7,21.2,30.44,West,279,0.0,0.0,90,0.00,,CLR,0.00,0.00,VWS V14.01,2013-01-11 12:01:00,
2013-01-11 07:04:00,23.7,21.2,30.44,West,279,0.0,0.0,90,0.00,,CLR,0.00,0.00,VWS V14.01,2013-01-11 12:04:00,
2013-01-11 07:06:00,23.7,21.2,30.43,West,279,0.0,0.0,90,0.00,,CLR,0.00,0.00,VWS V14.01,2013-01-11 12:06:00,
2013-01-11 07:08:00,23.8,21.3,30.44,West,279,0.0,0.0,90,0.00,,CLR,0.00,0.00,VWS V14.01,2013-01-11 12:08:00,
2013-01-11 07:09:00,23.8,21.3,30.44,West,279,0.0,0.0,90,0.00,,CLR,0.00,0.00,VWS V14.01,2013-01-11 12:09:00,
2013-01-11 07:13:00,23.8,21.0,30.43,West,279,0.0,0.0,89,0.00,,CLR,0.00,0.00,VWS V14.01,2013-01-11 12:13:00,
2013-01-11 07:15:00,23.8,21.0,30.43,West,279,0.0,0.0,89,0.00,,CLR,0.00,0.00,VWS V14.01,2013-01-11 12:15:00,
2013-01-11 07:16:00,23.8,21.0,30.43,West,279,0.0,0.0,89,0.00,,CLR,0.00,0.00,VWS V14.01,2013-01-11 12:16:00,
2013-01-11 07:18:00,23.8,21.0,30.43,West,279,0.0,0.0,89,0.00,,CLR,0.00,0.00,VWS V14.01,2013-01-11 12:18:00,
2013-01-11 07:23:00,23.9,21.4,30.43,West,279,0.0,0.0,90,0.00,,CLR,0.00,0.00,VWS V14.01,2013-01-11 12:23:00,
2013-01-11 07:25:00,23.9,21.4,30.43,West,279,0.0,0.0,90,0.00,,CLR,0.00,0.00,VWS V14.01,2013-01-11 12:25:00,
2013-01-11 07:27:00,24.0,21.5,30.43,West,279,0.0,0.0,90,0.00,,CLR,0.00,5.00,VWS V14.01,2013-01-11 12:27:00,
2013-01-11 07:30:00,24.0,21.5,30.43,West,279,0.0,0.0,90,0.00,,CLR,0.00,5.00,VWS V14.01,2013-01-11 12:30:00,
2013-01-11 07:32:00,24.0,21.5,30.43,West,279,0.0,0.0,90,0.00,,CLR,0.00,7.00,VWS V14.01,2013-01-11 12:32:00,
2013-01-11 07:35:00,24.1,21.6,30.43,West,279,0.0,0.0,90,0.00,,CLR,0.00,9.00,VWS V14.01,2013-01-11 12:35:00,
2013-01-11 07:37:00,24.1,21.6,30.43,West,279,0.0,0.0,90,0.00,,CLR,0.00,9.00,VWS V14.01,2013-01-11 12:37:00,
2013-01-11 07:40:00,24.2,21.7,30.43,West,279,0.0,0.0,90,0.00,,CLR,0.00,12.00,VWS V14.01,2013-01-11 12:40:00,
2013-01-11 07:42:00,24.3,21.8,30.43,West,279,0.0,0.0,90,0.00,,CLR,0.00,12.00,VWS V14.01,2013-01-11 12:42:00,
2013-01-11 07:45:00,24.4,21.9,30.44,West,279,0.0,0.0,90,0.00,,CLR,0.00,16.00,VWS V14.01,2013-01-11 12:45:00,
2013-01-11 07:47:00,24.4,21.9,30.44,West,279,0.0,0.0,90,0.00,,CLR,0.00,18.00,VWS V14.01,2013-01-11 12:47:00,
2013-01-11 07:49:00,24.5,22.0,30.44,West,279,0.0,0.0,90,0.00,,CLR,0.00,19.00,VWS V14.01,2013-01-11 12:49:00,
2013-01-11 07:52:00,24.6,22.1,30.44,West,279,0.0,0.0,90,0.00,,CLR,0.00,23.00,VWS V14.01,2013-01-11 12:52:00,
2013-01-11 07:55:00,24.7,22.2,30.44,West,279,0.0,0.0,90,0.00,,CLR,0.00,26.00,VWS V14.01,2013-01-11 12:55:00,
2013-01-11 07:57:00,24.8,22.3,30.44,West,279,0.0,0.0,90,0.00,,CLR,0.00,28.00,VWS V14.01,2013-01-11 12:57:00,
2013-01-11 07:59:00,24.8,22.3,30.44,West,279,0.0,0.0,90,0.00,,CLR,0.00,30.00,VWS V14.01,2013-01-11 12:59:00,
2013-01-11 08:02:00,24.9,22.4,30.44,West,279,0.0,0.0,90,0.00,,CLR,0.00,33.00,VWS V14.01,2013-01-11 13:02:00,
2013-01-11 08:04:00,25.0,22.5,30.44,West,279,0.0,0.0,90,0.00,,CLR,0.00,35.00,VWS V14.01,2013-01-11 13:04:00,
2013-01-11 08:05:00,25.0,22.5,30.44,West,279,0.0,0.0,90,0.00,,CLR,0.00,37.00,VWS V14.01,2013-01-11 13:05:00,
2013-01-11 08:08:00,25.1,22.6,30.44,West,279,0.0,0.0,90,0.00,,CLR,0.00,40.00,VWS V14.01,2013-01-11 13:08:00,
2013-01-11 08:09:00,25.1,22.6,30.44,West,279,0.0,0.0,90,0.00,,CLR,0.00,44.00,VWS V14.01,2013-01-11 13:09:00,
2013-01-11 08:11:00,25.2,22.7,30.44,West,279,0.0,0.0,90,0.00,,CLR,0.00,46.00,VWS V14.01,2013-01-11 13:11:00,
2013-01-11 08:16:00,25.4,22.9,30.44,West,279,0.0,0.0,90,0.00,,CLR,0.00,54.00,VWS V14.01,2013-01-11 13:16:00,
2013-01-11 08:18:00,25.4,22.9,30.44,West,279,0.0,0.0,90,0.00,,CLR,0.00,56.00,VWS V14.01,2013-01-11 13:18:00,
2013-01-11 08:19:00,25.5,23.0,30.44,West,279,0.0,0.0,90,0.00,,CLR,0.00,60.00,VWS V14.01,2013-01-11 13:19:00,
2013-01-11 08:23:00,25.6,23.1,30.44,West,279,0.0,0.0,90,0.00,,CLR,0.00,65.00,VWS V14.01,2013-01-11 13:23:00,
2013-01-11 08:25:00,25.7,23.2,30.44,West,279,0.0,0.0,90,0.00,,CLR,0.00,65.00,VWS V14.01,2013-01-11 13:25:00,
2013-01-11 08:26:00,25.8,23.3,30.44,West,279,0.0,0.0,90,0.00,,CLR,0.00,67.00,VWS V14.01,2013-01-11 13:26:00,
2013-01-11 08:30:00,25.9,23.4,30.44,West,279,0.0,0.0,90,0.00,,CLR,0.00,69.00,VWS V14.01,2013-01-11 13:30:00,
2013-01-11 08:33:00,26.0,23.5,30.43,West,279,0.0,0.0,90,0.00,,CLR,0.00,72.00,VWS V14.01,2013-01-11 13:33:00,
2013-01-11 08:35:00,26.1,23.6,30.44,West,279,0.0,0.0,90,0.00,,CLR,0.00,74.00,VWS V14.01,2013-01-11 13:35:00,
2013-01-11 08:40:00,26.3,23.8,30.43,West,279,0.0,0.0,90,0.00,,CLR,0.00,79.00,VWS V14.01,2013-01-11 13:40:00,
2013-01-11 08:42:00,26.3,23.8,30.43,West,279,0.0,0.0,90,0.00,,CLR,0.00,81.00,VWS V14.01,2013-01-11 13:42:00,
2013-01-11 08:45:00,26.5,24.0,30.43,West,279,0.0,0.0,90,0.00,,CLR,0.00,86.00,VWS V14.01,2013-01-11 13:45:00,
2013-01-11 08:47:00,26.6,24.1,30.43,West,279,0.0,0.0,90,0.00,,CLR,0.00,88.00,VWS V14.01,2013-01-11 13:47:00,
2013-01-11 08:48:00,26.7,24.2,30.43,West,279,0.0,0.0,90,0.00,,CLR,0.00,90.00,VWS V14.01,2013-01-11 13:48:00,
2013-01-11 08:50:00,26.9,24.4,30.43,West,279,0.0,0.0,90,0.00,,CLR,0.00,93.00,VWS V14.01,2013-01-11 13:50:00,
2013-01-11 08:54:00,27.1,24.6,30.44,West,279,0.0,0.0,90,0.00,,CLR,0.00,97.00,VWS V14.01,2013-01-11 13:54:00,
2013-01-11 08:57:00,27.6,24.8,30.43,West,279,0.0,0.0,89,0.00,,CLR,0.00,100.00,VWS V14.01,2013-01-11 13:57:00,
2013-01-11 08:59:00,27.9,25.1,30.43,West,279,0.0,0.0,89,0.00,,CLR,0.00,102.00,VWS V14.01,2013-01-11 13:59:00,
2013-01-11 09:00:00,28.2,25.1,30.43,West,279,0.0,0.0,88,0.00,,CLR,0.00,105.00,VWS V14.01,2013-01-11 14:00:00,
2013-01-11 09:02:00,28.4,25.3,30.43,West,279,0.0,0.0,88,0.00,,CLR,0.00,107.00,VWS V14.01,2013-01-11 14:02:00,
2013-01-11 09:05:00,28.9,25.8,30.43,West,279,0.0,0.0,88,0.00,,CLR,0.00,113.00,VWS V14.01,2013-01-11 14:05:00,
2013-01-11 09:07:00,29.1,25.7,30.43,West,279,0.0,0.0,87,0.00,,CLR,0.00,116.00,VWS V14.01,2013-01-11 14:07:00,
2013-01-11 09:11:00,29.4,25.7,30.43,West,279,0.0,0.0,86,0.00,,CLR,0.00,120.00,VWS V14.01,2013-01-11 14:11:00,
2013-01-11 09:12:00,29.6,25.6,30.43,West,279,0.0,0.0,85,0.00,,CLR,0.00,121.00,VWS V14.01,2013-01-11 14:12:00,
2013-01-11 09:14:00,29.8,25.6,30.43,West,279,0.0,0.0,84,0.00,,CLR,0.00,125.00,VWS V14.01,2013-01-11 14:14:00,
2013-01-11 09:16:00,29.9,25.7,30.43,West,279,0.0,0.0,84,0.00,,CLR,0.00,127.00,VWS V14.01,2013-01-11 14:16:00,
2013-01-11 09:17:00,30.1,25.6,30.43,West,279,0.0,0.0,83,0.00,,CLR,0.00,130.00,VWS V14.01,2013-01-11 14:17:00,
2013-01-11 09:23:00,30.4,25.6,30.43,West,279,0.0,0.0,82,0.00,,CLR,0.00,135.00,VWS V14.01,2013-01-11 14:23:00,
2013-01-11 09:24:00,30.5,25.4,30.43,West,279,0.0,0.0,81,0.00,,CLR,0.00,134.00,VWS V14.01,2013-01-11 14:24:00,
2013-01-11 09:26:00,30.7,25.6,30.43,West,279,0.0,0.0,81,0.00,,CLR,0.00,134.00,VWS V14.01,2013-01-11 14:26:00,
2013-01-11 09:28:00,30.8,25.7,30.43,West,279,0.0,0.0,81,0.00,,CLR,0.00,134.00,VWS V14.01,2013-01-11 14:28:00,
2013-01-11 09:31:00,31.2,25.8,30.43,West,279,0.0,0.0,80,0.00,,CLR,0.00,135.00,VWS V14.01,2013-01-11 14:31:00,
2013-01-11 09:34:00,31.5,25.8,30.43,ENE,58,0.0,0.0,79,0.00,,CLR,0.00,137.00,VWS V14.01,2013-01-11 14:34:00,
2013-01-11 09:36:00,31.6,25.5,30.43,ENE,58,0.0,0.0,78,0.00,,CLR,0.00,139.00,VWS V14.01,2013-01-11 14:36:00,
2013-01-11 09:40:00,31.9,25.8,30.43,ENE,58,0.0,0.0,78,0.00,,CLR,0.00,146.00,VWS V14.01,2013-01-11 14:40:00,
2013-01-11 09:41:00,32.0,25.6,30.43,ENE,58,0.0,0.0,77,0.00,,CLR,0.00,151.00,VWS V14.01,2013-01-11 14:41:00,
2013-01-11 09:45:00,32.3,25.9,30.43,ENE,58,0.0,0.0,77,0.00,,CLR,0.00,148.00,VWS V14.01,2013-01-11 14:45:00,
2013-01-11 09:46:00,32.4,25.7,30.43,ENE,58,0.0,0.0,76,0.00,,CLR,0.00,146.00,VWS V14.01,2013-01-11 14:46:00,
2013-01-11 09:48:00,32.5,25.8,30.43,ENE,58,0.0,0.0,76,0.00,,CLR,0.00,146.00,VWS V14.01,2013-01-11 14:48:00,
2013-01-11 09:50:00,32.6,25.9,30.43,ENE,58,0.0,1.0,76,0.00,,CLR,0.00,148.00,VWS V14.01,2013-01-11 14:50:00,
2013-01-11 09:52:00,32.7,25.7,30.43,ENE,58,0.0,1.0,75,0.00,,CLR,0.00,158.00,VWS V14.01,2013-01-11 14:52:00,
2013-01-11 09:55:00,32.9,25.9,30.42,ENE,58,0.0,1.0,75,0.00,,CLR,0.00,179.00,VWS V14.01,2013-01-11 14:55:00,
2013-01-11 09:57:00,33.0,25.6,30.43,ENE,58,0.0,1.0,74,0.00,,CLR,0.00,183.00,VWS V14.01,2013-01-11 14:57:00,
2013-01-11 09:58:00,33.1,25.7,30.42,ENE,58,0.0,1.0,74,0.00,,CLR,0.00,202.00,VWS V14.01,2013-01-11 14:58:00,
2013-01-11 10:00:00,33.3,25.9,30.42,ENE,58,0.0,1.0,74,0.00,,CLR,0.00,221.00,VWS V14.01,2013-01-11 15:00:00,
2013-01-11 10:04:00,33.7,26.3,30.42,ENE,58,0.0,1.0,74,0.00,,CLR,0.00,223.00,VWS V14.01,2013-01-11 15:04:00,
2013-01-11 10:05:00,33.9,26.5,30.42,ENE,58,0.0,1.0,74,0.00,,CLR,0.00,246.00,VWS V14.01,2013-01-11 15:05:00,
2013-01-11 10:07:00,34.1,26.4,30.42,NE,51,0.0,2.0,73,0.00,,CLR,0.00,237.00,VWS V14.01,2013-01-11 15:07:00,
2013-01-11 10:10:00,34.4,26.3,30.42,NE,51,0.0,2.0,72,0.00,,CLR,0.00,229.00,VWS V14.01,2013-01-11 15:10:00,
2013-01-11 10:14:00,34.4,26.0,30.42,NE,53,0.0,2.0,71,0.00,,CLR,0.00,176.00,VWS V14.01,2013-01-11 15:14:00,
2013-01-11 10:15:00,34.5,26.1,30.42,NE,53,1.0,3.0,71,0.00,,CLR,0.00,178.00,VWS V14.01,2013-01-11 15:15:00,
2013-01-11 10:19:00,34.8,26.4,30.41,NE,53,0.0,3.0,71,0.00,,CLR,0.00,172.00,VWS V14.01,2013-01-11 15:19:00,
2013-01-11 10:21:00,34.9,26.1,30.42,ENE,67,0.0,3.0,70,0.00,,CLR,0.00,167.00,VWS V14.01,2013-01-11 15:21:00,
2013-01-11 10:22:00,34.9,26.1,30.41,East,92,0.0,3.0,70,0.00,,CLR,0.00,165.00,VWS V14.01,2013-01-11 15:22:00,
2013-01-11 10:24:00,34.9,25.8,30.41,ESE,122,0.0,3.0,69,0.00,,CLR,0.00,176.00,VWS V14.01,2013-01-11 15:24:00,
2013-01-11 10:29:00,34.9,26.1,30.40,ESE,122,0.0,3.0,70,0.00,,CLR,0.00,169.00,VWS V14.01,2013-01-11 15:29:00,
2013-01-11 10:33:00,34.9,25.8,30.40,East,83,0.0,3.0,69,0.00,,CLR,0.00,167.00,VWS V14.01,2013-01-11 15:33:00,
2013-01-11 10:34:00,34.9,25.8,30.40,East,82,0.0,3.0,69,0.00,,CLR,0.00,165.00,VWS V14.01,2013-01-11 15:34:00,
2013-01-11 10:38:00,35.0,26.2,30.39,East,92,0.0,4.0,70,0.00,,CLR,0.00,158.00,VWS V14.01,2013-01-11 15:38:00,
2013-01-11 10:43:00,35.1,26.0,30.39,NNW,343,0.0,4.0,69,0.00,,CLR,0.00,155.00,VWS V14.01,2013-01-11 15:43:00,
2013-01-11 10:46:00,35.0,25.5,30.40,ESE,107,0.0,4.0,68,0.00,,CLR,0.00,151.00,VWS V14.01,2013-01-11 15:46:00,
2013-01-11 10:48:00,35.0,25.9,30.40,ESE,107,0.0,4.0,69,0.00,,CLR,0.00,153.00,VWS V14.01,2013-01-11 15:48:00,
2013-01-11 10:51:00,35.1,26.0,30.40,East,80,0.0,4.0,69,0.00,,CLR,0.00,153.00,VWS V14.01,2013-01-11 15:51:00,
2013-01-11 10:55:00,35.2,26.1,30.40,East,80,0.0,4.0,69,0.00,,CLR,0.00,144.00,VWS V14.01,2013-01-11 15:55:00,
2013-01-11 10:56:00,35.3,25.8,30.40,East,80,0.0,4.0,68,0.00,,CLR,0.00,137.00,VWS V14.01,2013-01-11 15:56:00,
2013-01-11 11:02:00,35.5,26.0,30.39,East,80,0.0,4.0,68,0.00,,CLR,0.00,123.00,VWS V14.01,2013-01-11 16:02:00,
2013-01-11 11:03:00,35.5,26.0,30.39,East,80,0.0,4.0,68,0.00,,CLR,0.00,120.00,VWS V14.01,2013-01-11 16:03:00,
2013-01-11 11:05:00,35.5,26.0,30.39,SE,134,0.0,4.0,68,0.00,,CLR,0.00,118.00,VWS V14.01,2013-01-11 16:05:00,
2013-01-11 11:07:00,35.6,26.1,30.39,SE,134,0.0,0.0,68,0.00,,CLR,0.00,114.00,VWS V14.01,2013-01-11 16:07:00,
2013-01-11 11:10:00,35.7,26.2,30.39,SE,134,0.0,0.0,68,0.00,,CLR,0.00,113.00,VWS V14.01,2013-01-11 16:10:00,
2013-01-11 11:12:00,35.7,26.2,30.39,SE,134,0.0,1.0,68,0.00,,CLR,0.00,114.00,VWS V14.01,2013-01-11 16:12:00,
2013-01-11 11:15:00,35.7,25.8,30.39,SSE,165,0.0,1.0,67,0.00,,CLR,0.00,120.00,VWS V14.01,2013-01-11 16:15:00,
2013-01-11 11:17:00,35.7,25.8,30.40,SSE,157,0.0,1.0,67,0.00,,CLR,0.00,120.00,VWS V14.01,2013-01-11 16:17:00,
2013-01-11 11:20:00,35.7,25.8,30.39,SE,145,2.0,2.0,67,0.00,,CLR,0.00,121.00,VWS V14.01,2013-01-11 16:20:00,
2013-01-11 11:24:00,35.7,25.8,30.39,SE,131,0.0,4.0,67,0.00,,CLR,0.00,125.00,VWS V14.01,2013-01-11 16:24:00,
2013-01-11 11:26:00,35.6,25.7,30.39,East,96,0.0,6.0,67,0.00,,CLR,0.00,123.00,VWS V14.01,2013-01-11 16:26:00,
2013-01-11 11:29:00,35.6,26.1,30.39,ESE,111,5.0,6.0,68,0.00,,CLR,0.00,111.00,VWS V14.01,2013-01-11 16:29:00,
2013-01-11 11:31:00,35.6,26.1,30.39,East,95,2.0,6.0,68,0.00,,CLR,0.00,105.00,VWS V14.01,2013-01-11 16:31:00,
2013-01-11 11:36:00,35.6,25.7,30.38,East,97,4.0,9.0,67,0.00,,CLR,0.00,105.00,VWS V14.01,2013-01-11 16:36:00,
2013-01-11 11:38:00,35.6,25.7,30.38,SE,144,0.0,9.0,67,0.00,,CLR,0.00,105.00,VWS V14.01,2013-01-11 16:38:00,
2013-01-11 11:41:00,35.6,26.1,30.38,SE,126,0.0,9.0,68,0.00,,CLR,0.00,105.00,VWS V14.01,2013-01-11 16:41:00,
2013-01-11 11:43:00,35.6,26.1,30.38,SSE,157,0.0,9.0,68,0.00,,CLR,0.00,104.00,VWS V14.01,2013-01-11 16:43:00,
2013-01-11 11:48:00,35.6,26.1,30.38,SSE,153,2.0,9.0,68,0.00,,CLR,0.00,102.00,VWS V14.01,2013-01-11 16:48:00,
2013-01-11 11:50:00,35.5,26.0,30.38,SE,126,0.0,9.0,68,0.00,,CLR,0.00,100.00,VWS V14.01,2013-01-11 16:50:00,
2013-01-11 11:53:00,35.5,26.4,30.37,SE,129,4.0,9.0,69,0.00,,CLR,0.00,93.00,VWS V14.01,2013-01-11 16:53:00,
2013-01-11 11:58:00,35.4,26.3,30.37,SE,134,1.0,9.0,69,0.00,,CLR,0.00,74.00,VWS V14.01,2013-01-11 16:58:00,
2013-01-11 12:00:00,35.4,26.3,30.37,SSE,152,4.0,9.0,69,0.00,,CLR,0.00,69.00,VWS V14.01,2013-01-11 17:00:00,
2013-01-11 12:03:00,35.3,26.2,30.37,South,171,0.0,9.0,69,0.00,,CLR,0.00,62.00,VWS V14.01,2013-01-11 17:03:00,
2013-01-11 12:05:00,35.2,26.1,30.37,SE,140,1.0,9.0,69,0.00,,CLR,0.00,60.00,VWS V14.01,2013-01-11 17:05:00,
2013-01-11 12:07:00,35.2,26.1,30.36,ESE,117,0.0,2.0,69,0.00,,CLR,0.00,58.00,VWS V14.01,2013-01-11 17:07:00,
2013-01-11 12:10:00,35.2,26.4,30.36,SE,129,0.0,3.0,70,0.00,,CLR,0.00,54.00,VWS V14.01,2013-01-11 17:10:00,
2013-01-11 12:15:00,35.2,26.4,30.36,SE,132,0.0,3.0,70,0.00,,CLR,0.00,60.00,VWS V14.01,2013-01-11 17:15:00,
2013-01-11 12:17:00,35.2,26.4,30.36,SE,132,1.0,3.0,70,0.00,,CLR,0.00,63.00,VWS V14.01,2013-01-11 17:17:00,
2013-01-11 12:22:00,35.1,26.7,30.36,East,101,1.0,4.0,71,0.00,,CLR,0.00,77.00,VWS V14.01,2013-01-11 17:22:00,
2013-01-11 12:24:00,35.1,26.7,30.36,East,101,0.0,4.0,71,0.00,,CLR,0.00,84.00,VWS V14.01,2013-01-11 17:24:00,
2013-01-11 12:27:00,35.1,26.7,30.35,SE,140,0.0,6.0,71,0.00,,CLR,0.00,111.00,VWS V14.01,2013-01-11 17:27:00,
2013-01-11 12:29:00,35.1,26.7,30.35,SSE,150,5.0,6.0,71,0.00,,CLR,0.00,125.00,VWS V14.01,2013-01-11 17:29:00,
2013-01-11 12:32:00,35.2,26.8,30.35,SE,134,0.0,6.0,71,0.00,,CLR,0.00,137.00,VWS V14.01,2013-01-11 17:32:00,
2013-01-11 12:34:00,35.2,26.8,30.35,SE,132,0.0,6.0,71,0.00,,CLR,0.00,135.00,VWS V14.01,2013-01-11 17:34:00,
2013-01-11 12:36:00,35.2,26.8,30.35,East,92,1.0,6.0,71,0.00,,CLR,0.00,132.00,VWS V14.01,2013-01-11 17:36:00,
2013-01-11 12:38:00,35.2,26.8,30.35,East,94,0.0,6.0,71,0.00,,CLR,0.00,127.00,VWS V14.01,2013-01-11 17:38:00,
2013-01-11 12:41:00,35.3,26.9,30.35,East,101,0.0,6.0,71,0.00,,CLR,0.00,114.00,VWS V14.01,2013-01-11 17:41:00,
2013-01-11 12:43:00,35.4,27.0,30.35,East,101,0.0,6.0,71,0.00,,CLR,0.00,109.00,VWS V14.01,2013-01-11 17:43:00,
2013-01-11 12:44:00,35.5,27.0,30.34,East,101,0.0,6.0,71,0.00,,CLR,0.00,102.00,VWS V14.01,2013-01-11 17:44:00,
2013-01-11 12:46:00,35.5,27.0,30.35,ESE,115,0.0,6.0,71,0.00,,CLR,0.00,95.00,VWS V14.01,2013-01-11 17:46:00,
2013-01-11 12:50:00,35.5,27.0,30.35,SSE,155,1.0,6.0,71,0.00,,CLR,0.00,81.00,VWS V14.01,2013-01-11 17:50:00,
2013-01-11 12:51:00,35.5,27.0,30.34,SSE,155,0.0,6.0,71,0.00,,CLR,0.00,76.00,VWS V14.01,2013-01-11 17:51:00,
2013-01-11 12:55:00,35.5,27.0,30.34,South,188,2.0,6.0,71,0.00,,CLR,0.00,69.00,VWS V14.01,2013-01-11 17:55:00,
2013-01-11 12:56:00,35.4,27.3,30.35,SSE,163,0.0,6.0,72,0.00,,CLR,0.00,67.00,VWS V14.01,2013-01-11 17:56:00,
2013-01-11 12:58:00,35.4,27.3,30.35,SE,134,5.0,6.0,72,0.00,,CLR,0.00,65.00,VWS V14.01,2013-01-11 17:58:00,
2013-01-11 13:01:00,35.3,27.2,30.34,ESE,109,0.0,6.0,72,0.00,,CLR,0.00,67.00,VWS V14.01,2013-01-11 18:01:00,
2013-01-11 13:03:00,35.3,27.2,30.34,SE,144,0.0,6.0,72,0.00,,CLR,0.00,70.00,VWS V14.01,2013-01-11 18:03:00,
2013-01-11 13:05:00,35.3,27.2,30.34,ENE,76,1.0,6.0,72,0.00,,CLR,0.00,74.00,VWS V14.01,2013-01-11 18:05:00,
2013-01-11 13:08:00,35.3,27.2,30.34,East,80,0.0,1.0,72,0.00,,CLR,0.00,77.00,VWS V14.01,2013-01-11 18:08:00,
2013-01-11 13:13:00,35.4,27.6,30.33,ESE,103,0.0,1.0,73,0.00,,CLR,0.00,79.00,VWS V14.01,2013-01-11 18:13:00,
2013-01-11 13:15:00,35.4,27.6,30.33,SE,136,1.0,3.0,73,0.00,,CLR,0.00,77.00,VWS V14.01,2013-01-11 18:15:00,
2013-01-11 13:19:00,35.4,27.6,30.33,ESE,110,0.0,3.0,73,0.00,,CLR,0.00,74.00,VWS V14.01,2013-01-11 18:19:00,
2013-01-11 13:20:00,35.5,27.7,30.33,ESE,110,0.0,3.0,73,0.00,,CLR,0.00,72.00,VWS V14.01,2013-01-11 18:20:00,
2013-01-11 13:25:00,35.5,27.7,30.32,ESE,103,0.0,4.0,73,0.00,,CLR,0.00,65.00,VWS V14.01,2013-01-11 18:25:00,
2013-01-11 13:27:00,35.5,27.7,30.32,ESE,115,0.0,4.0,73,0.00,,CLR,0.00,62.00,VWS V14.01,2013-01-11 18:27:00,
2013-01-11 13:31:00,35.5,27.7,30.32,ESE,123,4.0,4.0,73,0.00,,CLR,0.00,58.00,VWS V14.01,2013-01-11 18:31:00,
2013-01-11 13:32:00,35.5,27.7,30.32,ESE,123,1.0,4.0,73,0.00,,CLR,0.00,60.00,VWS V14.01,2013-01-11 18:32:00,
2013-01-11 13:34:00,35.5,27.7,30.32,SE,128,0.0,4.0,73,0.00,,CLR,0.00,65.00,VWS V14.01,2013-01-11 18:34:00,
2013-01-11 13:37:00,35.5,27.7,30.32,SE,128,0.0,4.0,73,0.00,,CLR,0.00,83.00,VWS V14.01,2013-01-11 18:37:00,
2013-01-11 13:39:00,35.6,27.8,30.32,ESE,105,0.0,4.0,73,0.00,,CLR,0.00,84.00,VWS V14.01,2013-01-11 18:39:00,
2013-01-11 13:42:00,35.6,28.1,30.32,ESE,102,0.0,4.0,74,0.00,,CLR,0.00,77.00,VWS V14.01,2013-01-11 18:42:00,
2013-01-11 13:46:00,35.7,28.2,30.32,ESE,111,0.0,4.0,74,0.00,,CLR,0.00,77.00,VWS V14.01,2013-01-11 18:46:00,
2013-01-11 13:48:00,35.7,28.2,30.32,SE,137,4.0,6.0,74,0.00,,CLR,0.00,77.00,VWS V14.01,2013-01-11 18:48:00,
2013-01-11 13:49:00,35.7,28.2,30.32,SSE,159,0.0,7.0,74,0.00,,CLR,0.00,79.00,VWS V14.01,2013-01-11 18:49:00,
2013-01-11 13:54:00,35.7,28.2,30.32,SE,146,2.0,8.0,74,0.00,,CLR,0.00,65.00,VWS V14.01,2013-01-11 18:54:00,
2013-01-11 13:58:00,35.8,28.7,30.32,SSE,165,4.0,8.0,75,0.00,,CLR,0.00,67.00,VWS V14.01,2013-01-11 18:58:00,
2013-01-11 14:01:00,35.8,28.7,30.32,ESE,123,1.0,8.0,75,0.00,,CLR,0.00,72.00,VWS V14.01,2013-01-11 19:01:00,
2013-01-11 14:03:00,35.8,28.7,30.31,ESE,103,0.0,8.0,75,0.00,,CLR,0.00,72.00,VWS V14.01,2013-01-11 19:03:00,
2013-01-11 14:05:00,35.8,28.7,30.32,ENE,76,0.0,8.0,75,0.00,,CLR,0.00,69.00,VWS V14.01,2013-01-11 19:05:00,
2013-01-11 14:06:00,35.8,28.7,30.31,ESE,117,0.0,1.0,75,0.00,,CLR,0.00,67.00,VWS V14.01,2013-01-11 19:06:00,
2013-01-11 14:08:00,35.9,28.8,30.31,ESE,117,1.0,1.0,75,0.00,,CLR,0.00,65.00,VWS V14.01,2013-01-11 19:08:00,
2013-01-11 14:11:00,35.9,28.8,30.32,ESE,121,1.0,5.0,75,0.00,,CLR,0.00,65.00,VWS V14.01,2013-01-11 19:11:00,
2013-01-11 14:13:00,35.9,28.8,30.31,ESE,123,2.0,5.0,75,0.00,,OVC100,0.00,65.00,VWS V14.01,2013-01-11 19:13:00,
2013-01-11 14:15:00,35.9,28.8,30.31,East,90,4.0,5.0,75,0.00,,OVC100,0.00,67.00,VWS V14.01,2013-01-11 19:15:00,
2013-01-11 14:18:00,35.9,28.8,30.31,SE,130,5.0,5.0,75,0.00,,OVC100,0.00,69.00,VWS V14.01,2013-01-11 19:18:00,
2013-01-11 14:20:00,35.9,28.8,30.31,SSE,149,0.0,6.0,75,0.00,,OVC100,0.00,69.00,VWS V14.01,2013-01-11 19:20:00,
2013-01-11 14:22:00,35.9,28.8,30.31,SSE,162,1.0,6.0,75,0.00,,OVC100,0.00,69.00,VWS V14.01,2013-01-11 19:22:00,
2013-01-11 14:23:00,35.9,28.8,30.31,SSE,162,0.0,6.0,75,0.00,,OVC100,0.00,67.00,VWS V14.01,2013-01-11 19:23:00,
2013-01-11 14:28:00,35.9,28.8,30.30,ESE,107,1.0,7.0,75,0.00,,OVC100,0.00,63.00,VWS V14.01,2013-01-11 19:28:00,
2013-01-11 14:30:00,35.9,28.8,30.30,SE,130,2.0,7.0,75,0.00,,OVC100,0.00,62.00,VWS V14.01,2013-01-11 19:30:00,
2013-01-11 14:32:00,35.9,28.8,30.30,SE,130,0.0,7.0,75,0.00,,OVC100,0.00,60.00,VWS V14.01,2013-01-11 19:32:00,
2013-01-11 14:34:00,35.9,28.8,30.30,SE,130,2.0,7.0,75,0.00,,OVC100,0.00,60.00,VWS V14.01,2013-01-11 19:34:00,
2013-01-11 14:37:00,35.9,28.8,30.30,SE,128,1.0,7.0,75,0.00,,OVC100,0.00,54.00,VWS V14.01,2013-01-11 19:37:00,
2013-01-11 14:39:00,35.9,28.8,30.30,SE,138,1.0,7.0,75,0.00,,OVC100,0.00,51.00,VWS V14.01,2013-01-11 19:39:00,
2013-01-11 14:42:00,35.9,28.8,30.30,ESE,111,1.0,7.0,75,0.00,,OVC100,0.00,51.00,VWS V14.01,2013-01-11 19:42:00,
2013-01-11 14:46:00,35.9,28.8,30.30,SE,125,3.0,7.0,75,0.00,,OVC100,0.00,51.00,VWS V14.01,2013-01-11 19:46:00,
2013-01-11 14:51:00,35.9,28.8,30.30,ESE,112,1.0,7.0,75,0.00,,OVC100,0.00,46.00,VWS V14.01,2013-01-11 19:51:00,
2013-01-11 14:52:00,35.9,28.8,30.30,SE,126,0.0,7.0,75,0.00,,OVC100,0.00,42.00,VWS V14.01,2013-01-11 19:52:00,
2013-01-11 14:54:00,35.9,28.8,30.30,SE,126,0.0,7.0,75,0.00,,OVC100,0.00,39.00,VWS V14.01,2013-01-11 19:54:00,
2013-01-11 14:56:00,35.9,28.8,30.30,SE,126,0.0,7.0,75,0.00,,OVC100,0.00,35.00,VWS V14.01,2013-01-11 19:56:00,
2013-01-11 15:01:00,35.9,29.1,30.30,ESE,118,0.0,7.0,76,0.00,,OVC100,0.00,25.00,VWS V14.01,2013-01-11 20:01:00,
2013-01-11 15:03:00,35.9,29.1,30.30,ESE,122,1.0,7.0,76,0.00,,OVC100,0.00,23.00,VWS V14.01,2013-01-11 20:03:00,
2013-01-11 15:04:00,35.9,29.1,30.30,SSE,168,2.0,7.0,76,0.00,,OVC100,0.00,18.00,VWS V14.01,2013-01-11 20:04:00,
2013-01-11 15:08:00,35.8,29.0,30.30,SE,128,0.0,2.0,76,0.00,,OVC100,0.00,12.00,VWS V14.01,2013-01-11 20:08:00,
2013-01-11 15:09:00,35.8,29.0,30.30,SE,130,0.0,2.0,76,0.00,,OVC100,0.00,12.00,VWS V14.01,2013-01-11 20:09:00,
2013-01-11 15:11:00,35.7,28.9,30.30,SE,128,1.0,2.0,76,0.00,,OVC100,0.00,14.00,VWS V14.01,2013-01-11 20:11:00,
2013-01-11 15:13:00,35.7,28.9,30.30,SE,128,0.0,2.0,76,0.00,,OVC100,0.00,14.00,VWS V14.01,2013-01-11 20:13:00,
2013-01-11 15:16:00,35.7,28.9,30.30,South,182,2.0,4.0,76,0.00,,OVC100,0.00,14.00,VWS V14.01,2013-01-11 20:16:00,
2013-01-11 15:20:00,35.7,29.2,30.30,SE,127,0.0,4.0,77,0.00,,OVC100,0.00,16.00,VWS V14.01,2013-01-11 20:20:00,
2013-01-11 15:21:00,35.6,29.1,30.30,SE,140,1.0,4.0,77,0.00,,OVC100,0.00,18.00,VWS V14.01,2013-01-11 20:21:00,
2013-01-11 15:23:00,35.6,29.1,30.29,ESE,121,2.0,4.0,77,0.00,,OVC100,0.00,19.00,VWS V14.01,2013-01-11 20:23:00,
2013-01-11 15:26:00,35.6,29.1,30.29,SE,139,0.0,4.0,77,0.00,,OVC100,0.00,23.00,VWS V14.01,2013-01-11 20:26:00,
2013-01-11 15:28:00,35.5,29.0,30.29,SSE,148,1.0,4.0,77,0.00,,OVC100,0.00,23.00,VWS V14.01,2013-01-11 20:28:00,
2013-01-11 15:30:00,35.5,29.0,30.29,SSE,147,0.0,4.0,77,0.00,,OVC100,0.00,21.00,VWS V14.01,2013-01-11 20:30:00,
2013-01-11 15:33:00,35.6,29.1,30.29,SE,133,0.0,4.0,77,0.00,,OVC100,0.00,19.00,VWS V14.01,2013-01-11 20:33:00,
2013-01-11 15:38:00,35.6,29.1,30.28,SE,133,0.0,4.0,77,0.00,,OVC100,0.00,16.00,VWS V14.01,2013-01-11 20:38:00,
2013-01-11 15:40:00,35.6,29.1,30.28,SE,136,2.0,4.0,77,0.00,,OVC100,0.00,14.00,VWS V14.01,2013-01-11 20:40:00,
2013-01-11 15:42:00,35.6,29.1,30.28,East,96,4.0,4.0,77,0.00,,OVC100,0.00,12.00,VWS V14.01,2013-01-11 20:42:00,
2013-01-11 15:45:00,35.5,29.0,30.28,ESE,117,0.0,5.0,77,0.00,,OVC100,0.00,11.00,VWS V14.01,2013-01-11 20:45:00,
2013-01-11 15:47:00,35.5,29.0,30.27,ESE,117,0.0,5.0,77,0.00,,OVC100,0.00,12.00,VWS V14.01,2013-01-11 20:47:00,
2013-01-11 15:49:00,35.5,29.0,30.28,ESE,117,1.0,5.0,77,0.00,,OVC100,0.00,12.00,VWS V14.01,2013-01-11 20:49:00,
2013-01-11 15:50:00,35.5,29.0,30.27,ESE,122,0.0,5.0,77,0.00,,OVC100,0.00,12.00,VWS V14.01,2013-01-11 20:50:00,
2013-01-11 15:52:00,35.5,29.0,30.27,ESE,122,0.0,5.0,77,0.00,,OVC100,0.00,12.00,VWS V14.01,2013-01-11 20:52:00,
2013-01-11 15:54:00,35.5,29.0,30.27,ESE,121,2.0,5.0,77,0.00,,OVC100,0.00,11.00,VWS V14.01,2013-01-11 20:54:00,
2013-01-11 15:57:00,35.4,29.2,30.27,ESE,118,1.0,5.0,78,0.00,,OVC100,0.00,9.00,VWS V14.01,2013-01-11 20:57:00,
2013-01-11 15:59:00,35.4,29.2,30.28,SE,126,4.0,5.0,78,0.00,,OVC100,0.00,9.00,VWS V14.01,2013-01-11 20:59:00,
2013-01-11 16:02:00,35.4,29.2,30.27,ESE,121,2.0,5.0,78,0.00,,OVC100,0.00,11.00,VWS V14.01,2013-01-11 21:02:00,
2013-01-11 16:04:00,35.4,29.2,30.27,ESE,121,0.0,5.0,78,0.00,,OVC100,0.00,9.00,VWS V14.01,2013-01-11 21:04:00,
2013-01-11 16:05:00,35.4,29.2,30.27,ESE,121,0.0,5.0,78,0.00,,OVC100,0.00,9.00,VWS V14.01,2013-01-11 21:05:00,
2013-01-11 16:09:00,35.4,29.2,30.27,ESE,121,0.0,1.0,78,0.00,,OVC100,0.00,9.00,VWS V14.01,2013-01-11 21:09:00,
2013-01-11 16:13:00,35.4,29.5,30.27,SE,129,0.0,2.0,79,0.00,,OVC065,0.00,7.00,VWS V14.01,2013-01-11 21:13:00,
2013-01-11 16:14:00,35.4,29.5,30.27,SE,140,0.0,3.0,79,0.00,,OVC065,0.00,7.00,VWS V14.01,2013-01-11 21:14:00,
2013-01-11 16:18:00,35.4,29.5,30.27,SE,136,0.0,3.0,79,0.00,,OVC065,0.00,5.00,VWS V14.01,2013-01-11 21:18:00,
2013-01-11 16:21:00,35.4,29.5,30.27,SE,130,0.0,3.0,79,0.00,,OVC065,0.00,0.00,VWS V14.01,2013-01-11 21:21:00,
2013-01-11 16:23:00,35.4,29.5,30.27,SE,130,0.0,3.0,79,0.00,,OVC065,0.00,0.00,VWS V14.01,2013-01-11 21:23:00,
2013-01-11 16:28:00,35.3,29.5,30.26,SE,131,0.0,4.0,79,0.00,,OVC065,0.00,0.00,VWS V14.01,2013-01-11 21:28:00,
2013-01-11 16:30:00,35.3,29.5,30.26,SE,131,0.0,4.0,79,0.00,,OVC065,0.00,0.00,VWS V14.01,2013-01-11 21:30:00,
2013-01-11 16:33:00,35.3,29.8,30.26,SSE,152,0.0,4.0,80,0.00,,OVC065,0.00,0.00,VWS V14.01,2013-01-11 21:33:00,
2013-01-11 16:35:00,35.3,29.8,30.26,SE,127,0.0,4.0,80,0.00,,OVC065,0.00,0.00,VWS V14.01,2013-01-11 21:35:00,
2013-01-11 16:38:00,35.2,29.7,30.26,ESE,106,0.0,4.0,80,0.00,,OVC065,0.00,0.00,VWS V14.01,2013-01-11 21:38:00,
2013-01-11 16:40:00,35.2,30.0,30.26,SE,132,1.0,4.0,81,0.00,,OVC065,0.00,0.00,VWS V14.01,2013-01-11 21:40:00,
2013-01-11 16:43:00,35.1,30.2,30.26,SE,132,0.0,4.0,82,0.00,,OVC065,0.00,0.00,VWS V14.01,2013-01-11 21:43:00,
2013-01-11 16:45:00,35.0,30.1,30.26,SE,132,0.0,4.0,82,0.00,,OVC065,0.00,0.00,VWS V14.01,2013-01-11 21:45:00,
2013-01-11 16:50:00,34.8,30.5,30.26,SE,132,2.0,4.0,84,0.00,,OVC065,0.00,0.00,VWS V14.01,2013-01-11 21:50:00,
2013-01-11 16:52:00,34.7,30.4,30.26,SE,132,0.0,4.0,84,0.00,,OVC065,0.00,0.00,VWS V14.01,2013-01-11 21:52:00,
2013-01-11 16:53:00,34.7,30.4,30.26,SE,132,0.0,4.0,84,0.00,,OVC065,0.00,0.00,VWS V14.01,2013-01-11 21:53:00,
2013-01-11 16:55:00,34.6,30.3,30.25,SE,132,0.0,4.0,84,0.00,,OVC065,0.00,0.00,VWS V14.01,2013-01-11 21:55:00,
2013-01-11 16:59:00,34.6,30.6,30.26,SE,132,0.0,4.0,85,0.00,,OVC065,0.00,0.00,VWS V14.01,2013-01-11 21:59:00,
2013-01-11 17:00:00,34.6,30.6,30.26,SE,132,0.0,4.0,85,0.00,,OVC065,0.00,0.00,VWS V14.01,2013-01-11 22:00:00,
2013-01-11 17:02:00,34.5,30.5,30.26,SE,132,0.0,4.0,85,0.00,,OVC065,0.00,0.00,VWS V14.01,2013-01-11 22:02:00,
2013-01-11 17:04:00,34.4,30.6,30.26,SE,132,0.0,4.0,86,0.00,,OVC065,0.00,0.00,VWS V14.01,2013-01-11 22:04:00,
2013-01-11 17:05:00,34.4,30.6,30.26,SE,132,0.0,4.0,86,0.00,,OVC065,0.00,0.00,VWS V14.01,2013-01-11 22:05:00,
2013-01-11 17:09:00,34.4,30.6,30.26,SE,132,0.0,1.0,86,0.00,,OVC065,0.00,0.00,VWS V14.01,2013-01-11 22:09:00,
2013-01-11 17:11:00,34.4,30.9,30.25,SE,132,0.0,1.0,87,0.00,,OVC065,0.00,0.00,VWS V14.01,2013-01-11 22:11:00,
2013-01-11 17:12:00,34.4,30.9,30.25,SE,132,0.0,1.0,87,0.00,,OVC065,0.00,0.00,VWS V14.01,2013-01-11 22:12:00,
2013-01-11 17:14:00,34.4,30.9,30.25,SE,132,0.0,1.0,87,0.00,,OVC065,0.00,0.00,VWS V14.01,2013-01-11 22:14:00,
2013-01-11 17:18:00,34.3,30.8,30.25,SE,132,0.0,1.0,87,0.00,,OVC065,0.00,0.00,VWS V14.01,2013-01-11 22:18:00,
2013-01-11 17:21:00,34.2,31.0,30.25,SE,132,0.0,1.0,88,0.00,,OVC065,0.00,0.00,VWS V14.01,2013-01-11 22:21:00,
2013-01-11 17:23:00,34.2,31.0,30.25,SE,132,0.0,1.0,88,0.00,,OVC065,0.00,0.00,VWS V14.01,2013-01-11 22:23:00,
2013-01-11 17:24:00,34.2,31.0,30.25,SE,132,0.0,1.0,88,0.00,,OVC065,0.00,0.00,VWS V14.01,2013-01-11 22:24:00,
2013-01-11 17:26:00,34.1,30.9,30.25,SE,132,0.0,1.0,88,0.00,,OVC065,0.00,0.00,VWS V14.01,2013-01-11 22:26:00,
2013-01-11 17:30:00,34.1,30.9,30.25,SE,132,0.0,1.0,88,0.00,,OVC065,0.00,0.00,VWS V14.01,2013-01-11 22:30:00,
2013-01-11 17:35:00,34.1,31.2,30.24,SE,132,0.0,1.0,89,0.00,,OVC065,0.00,0.00,VWS V14.01,2013-01-11 22:35:00,
2013-01-11 17:37:00,34.1,31.2,30.24,SE,132,0.0,1.0,89,0.00,,OVC065,0.00,0.00,VWS V14.01,2013-01-11 22:37:00,
2013-01-11 17:42:00,34.0,31.1,30.23,SE,132,0.0,1.0,89,0.00,,OVC065,0.00,0.00,VWS V14.01,2013-01-11 22:42:00,
2013-01-11 17:45:00,33.9,31.0,30.23,SE,132,0.0,1.0,89,0.00,,OVC065,0.00,0.00,VWS V14.01,2013-01-11 22:45:00,
2013-01-11 17:50:00,33.8,31.2,30.24,SE,132,0.0,1.0,90,0.00,,OVC065,0.00,0.00,VWS V14.01,2013-01-11 22:50:00,
2013-01-11 17:54:00,33.8,31.2,30.24,SE,132,0.0,1.0,90,0.00,,OVC065,0.00,0.00,VWS V14.01,2013-01-11 22:54:00,
2013-01-11 17:55:00,33.7,31.1,30.24,SE,132,0.0,1.0,90,0.00,,OVC065,0.00,0.00,VWS V14.01,2013-01-11 22:55:00,
2013-01-11 17:59:00,33.7,31.1,30.23,SE,132,0.0,1.0,90,0.00,,OVC065,0.00,0.00,VWS V14.01,2013-01-11 22:59:00,
2013-01-11 18:02:00,33.7,31.1,30.23,SE,132,0.0,1.0,90,0.00,,OVC065,0.00,0.00,VWS V14.01,2013-01-11 23:02:00,
2013-01-11 18:06:00,33.7,31.1,30.23,SE,132,0.0,0.0,90,0.00,,OVC065,0.00,0.00,VWS V14.01,2013-01-11 23:06:00,
2013-01-11 18:09:00,33.6,31.3,30.23,SE,132,0.0,1.0,91,0.00,,OVC065,0.00,0.00,VWS V14.01,2013-01-11 23:09:00,
2013-01-11 18:11:00,33.6,31.3,30.22,SE,132,0.0,1.0,91,0.00,,OVC065,0.00,0.00,VWS V14.01,2013-01-11 23:11:00,
2013-01-11 18:12:00,33.6,31.3,30.22,SSE,166,1.0,1.0,91,0.00,,OVC065,0.00,0.00,VWS V14.01,2013-01-11 23:12:00,
2013-01-11 18:14:00,33.6,31.3,30.23,ESE,107,0.0,2.0,91,0.00,,OVC055,0.00,0.00,VWS V14.01,2013-01-11 23:14:00,
2013-01-11 18:18:00,33.6,31.3,30.22,ESE,107,0.0,2.0,91,0.00,,OVC055,0.00,0.00,VWS V14.01,2013-01-11 23:18:00,
2013-01-11 18:19:00,33.6,31.3,30.22,ESE,107,0.0,2.0,91,0.00,,OVC055,0.00,0.00,VWS V14.01,2013-01-11 23:19:00,
2013-01-11 18:23:00,33.6,31.3,30.22,ESE,119,0.0,2.0,91,0.00,,OVC055,0.00,0.00,VWS V14.01,2013-01-11 23:23:00,
2013-01-11 18:26:00,33.6,31.3,30.22,ESE,119,0.0,2.0,91,0.00,,OVC055,0.00,0.00,VWS V14.01,2013-01-11 23:26:00,
2013-01-11 18:28:00,33.6,31.3,30.22,ESE,119,0.0,2.0,91,0.00,,OVC055,0.00,0.00,VWS V14.01,2013-01-11 23:28:00,
2013-01-11 18:31:00,33.6,31.3,30.22,ESE,121,0.0,2.0,91,0.00,,OVC055,0.00,0.00,VWS V14.01,2013-01-11 23:31:00,
2013-01-11 18:33:00,33.5,31.2,30.22,ESE,121,0.0,2.0,91,0.00,,OVC055,0.00,0.00,VWS V14.01,2013-01-11 23:33:00,
2013-01-11 18:35:00,33.6,31.5,30.23,ESE,121,0.0,2.0,92,0.00,,OVC055,0.00,0.00,VWS V14.01,2013-01-11 23:35:00,
2013-01-11 18:36:00,33.6,31.5,30.23,ENE,61,0.0,4.0,92,0.00,,OVC055,0.00,0.00,VWS V14.01,2013-01-11 23:36:00,
2013-01-11 18:40:00,33.6,31.5,30.23,ENE,61,0.0,4.0,92,0.00,,OVC055,0.00,0.00,VWS V14.01,2013-01-11 23:40:00,
2013-01-11 18:41:00,33.6,31.5,30.23,ENE,61,0.0,4.0,92,0.00,,OVC055,0.00,0.00,VWS V14.01,2013-01-11 23:41:00,
2013-01-11 18:43:00,33.6,31.5,30.22,ENE,61,0.0,4.0,92,0.00,,OVC055,0.00,0.00,VWS V14.01,2013-01-11 23:43:00,
2013-01-11 18:47:00,33.6,31.5,30.23,ESE,119,0.0,4.0,92,0.00,,OVC055,0.00,0.00,VWS V14.01,2013-01-11 23:47:00,
2013-01-11 18:48:00,33.7,31.6,30.22,SE,126,0.0,4.0,92,0.00,,OVC055,0.00,0.00,VWS V14.01,2013-01-11 23:48:00,
2013-01-11 18:52:00,33.7,31.6,30.22,SE,126,0.0,4.0,92,0.00,,OVC055,0.00,0.00,VWS V14.01,2013-01-11 23:52:00,
2013-01-11 18:53:00,33.7,31.6,30.21,SE,126,0.0,4.0,92,0.00,,OVC055,0.00,0.00,VWS V14.01,2013-01-11 23:53:00,
2013-01-11 18:57:00,33.7,31.6,30.21,ESE,113,0.0,4.0,92,0.00,,OVC055,0.00,0.00,VWS V14.01,2013-01-11 23:57:00,
2013-01-11 19:00:00,33.8,32.0,30.21,ESE,112,0.0,5.0,93,0.00,,OVC055,0.00,0.00,VWS V14.01,2013-01-12 00:00:00,
2013-01-11 19:02:00,33.9,32.1,30.21,ESE,121,1.0,5.0,93,0.00,,OVC055,0.00,0.00,VWS V14.01,2013-01-12 00:02:00,
2013-01-11 19:04:00,33.9,32.1,30.21,ESE,121,0.0,5.0,93,0.00,,OVC055,0.00,0.00,VWS V14.01,2013-01-12 00:04:00,
2013-01-11 19:05:00,34.0,32.2,30.21,ESE,121,0.0,1.0,93,0.00,,OVC055,0.00,0.00,VWS V14.01,2013-01-12 00:05:00,
2013-01-11 19:09:00,34.0,32.2,30.21,ESE,121,0.0,1.0,93,0.00,,OVC055,0.00,0.00,VWS V14.01,2013-01-12 00:09:00,
2013-01-11 19:12:00,34.0,32.2,30.20,ESE,121,0.0,1.0,93,0.00,,OVC055,0.00,0.00,VWS V14.01,2013-01-12 00:12:00,
2013-01-11 19:14:00,34.0,32.2,30.20,ESE,121,0.0,1.0,93,0.00,,OVC055,0.00,0.00,VWS V14.01,2013-01-12 00:14:00,
2013-01-11 19:16:00,34.0,32.2,30.20,ESE,121,0.0,1.0,93,0.00,,OVC055,0.00,0.00,VWS V14.01,2013-01-12 00:16:00,
2013-01-11 19:19:00,34.0,32.2,30.20,ESE,121,0.0,1.0,93,0.00,,OVC055,0.00,0.00,VWS V14.01,2013-01-12 00:19:00,
2013-01-11 19:21:00,34.0,32.2,30.20,ESE,121,0.0,1.0,93,0.00,,OVC055,0.00,0.00,VWS V14.01,2013-01-12 00:21:00,
2013-01-11 19:24:00,34.0,32.2,30.20,ESE,121,0.0,1.0,93,0.00,,OVC055,0.00,0.00,VWS V14.01,2013-01-12 00:24:00,
2013-01-11 19:26:00,34.0,32.2,30.20,ESE,121,0.0,1.0,93,0.00,,OVC055,0.00,0.00,VWS V14.01,2013-01-12 00:26:00,
2013-01-11 19:28:00,34.0,32.2,30.20,ESE,121,0.0,1.0,93,0.00,,OVC055,0.00,0.00,VWS V14.01,2013-01-12 00:28:00,
2013-01-11 19:30:00,34.0,32.2,30.20,ESE,121,0.0,1.0,93,0.00,,OVC055,0.00,0.00,VWS V14.01,2013-01-12 00:30:00,
2013-01-11 19:33:00,34.0,32.2,30.20,ESE,121,0.0,1.0,93,0.00,,OVC055,0.00,0.00,VWS V14.01,2013-01-12 00:33:00,
2013-01-11 19:36:00,34.0,32.2,30.20,ESE,121,0.0,1.0,93,0.00,,OVC055,0.00,0.00,VWS V14.01,2013-01-12 00:36:00,
2013-01-11 19:40:00,34.0,32.2,30.21,ESE,123,0.0,2.0,93,0.00,,OVC055,0.00,0.00,VWS V14.01,2013-01-12 00:40:00,
2013-01-11 19:42:00,34.1,32.3,30.20,ESE,123,0.0,2.0,93,0.00,,OVC055,0.00,0.00,VWS V14.01,2013-01-12 00:42:00,
2013-01-11 19:45:00,34.1,32.3,30.20,ESE,107,0.0,2.0,93,0.00,,OVC055,0.00,0.00,VWS V14.01,2013-01-12 00:45:00,
2013-01-11 19:48:00,34.1,32.3,30.20,ESE,107,0.0,2.0,93,0.00,,OVC055,0.00,0.00,VWS V14.01,2013-01-12 00:48:00,
2013-01-11 19:54:00,34.1,32.3,30.20,East,96,0.0,2.0,93,0.00,,OVC055,0.00,0.00,VWS V14.01,2013-01-12 00:54:00,
2013-01-11 19:55:00,34.1,32.3,30.20,East,96,0.0,2.0,93,0.00,,OVC055,0.00,0.00,VWS V14.01,2013-01-12 00:55:00,
2013-01-11 20:00:00,34.1,32.3,30.20,East,96,0.0,2.0,93,0.00,,OVC055,0.00,0.00,VWS V14.01,2013-01-12 01:00:00,
2013-01-11 20:02:00,34.1,32.3,30.20,East,96,0.0,2.0,93,0.00,,OVC055,0.00,0.00,VWS V14.01,2013-01-12 01:02:00,
2013-01-11 20:05:00,34.2,32.4,30.19,ESE,113,0.0,2.0,93,0.00,,OVC055,0.00,0.00,VWS V14.01,2013-01-12 01:05:00,
2013-01-11 20:06:00,34.1,32.3,30.19,ESE,113,0.0,0.0,93,0.00,,OVC055,0.00,0.00,VWS V14.01,2013-01-12 01:06:00,
2013-01-11 20:07:00,34.1,32.3,30.19,ESE,113,0.0,0.0,93,0.00,,OVC055,0.00,0.00,VWS V14.01,2013-01-12 01:07:00,
2013-01-11 20:12:00,34.1,32.3,30.19,ESE,113,0.0,0.0,93,0.00,,OVC055,0.00,0.00,VWS V14.01,2013-01-12 01:12:00,
2013-01-11 20:16:00,34.2,32.4,30.19,ESE,113,0.0,0.0,93,0.00,,-RA,0.00,0.00,VWS V14.01,2013-01-12 01:16:00,
2013-01-11 20:21:00,34.2,32.4,30.19,East,84,0.0,2.0,93,0.00,,-RA,0.00,0.00,VWS V14.01,2013-01-12 01:21:00,
2013-01-11 20:23:00,34.2,32.7,30.19,East,84,0.0,2.0,94,0.00,,-RA,0.00,0.00,VWS V14.01,2013-01-12 01:23:00,
2013-01-11 20:24:00,34.2,32.7,30.19,East,84,0.0,2.0,94,0.00,,-RA,0.00,0.00,VWS V14.01,2013-01-12 01:24:00,
2013-01-11 20:28:00,34.4,32.9,30.19,ESE,111,1.0,7.0,94,0.00,,-RA,0.00,0.00,VWS V14.01,2013-01-12 01:28:00,
2013-01-11 20:30:00,34.4,32.9,30.20,ESE,111,0.0,7.0,94,0.00,,-RA,0.00,0.00,VWS V14.01,2013-01-12 01:30:00,
2013-01-11 20:31:00,34.4,32.9,30.19,ESE,111,1.0,7.0,94,0.00,,-RA,0.00,0.00,VWS V14.01,2013-01-12 01:31:00,
2013-01-11 20:35:00,34.4,32.9,30.19,ESE,111,0.0,7.0,94,0.00,,-RA,0.00,0.00,VWS V14.01,2013-01-12 01:35:00,
2013-01-11 20:36:00,34.4,32.9,30.19,ESE,111,0.0,7.0,94,0.00,,-RA,0.00,0.00,VWS V14.01,2013-01-12 01:36:00,
2013-01-11 20:38:00,34.4,32.9,30.18,ESE,109,0.0,7.0,94,0.00,,-RA,0.00,0.00,VWS V14.01,2013-01-12 01:38:00,
2013-01-11 20:42:00,34.4,32.9,30.18,ESE,109,0.0,7.0,94,0.00,,-RA,0.00,0.00,VWS V14.01,2013-01-12 01:42:00,
2013-01-11 20:43:00,34.4,32.9,30.18,SE,126,0.0,7.0,94,0.00,,-RA,0.00,0.00,VWS V14.01,2013-01-12 01:43:00,
2013-01-11 20:48:00,34.4,32.9,30.18,ESE,121,0.0,7.0,94,0.00,,-RA,0.00,0.00,VWS V14.01,2013-01-12 01:48:00,
2013-01-11 20:50:00,34.4,32.9,30.18,ESE,121,0.0,7.0,94,0.00,,-RA,0.00,0.00,VWS V14.01,2013-01-12 01:50:00,
2013-01-11 20:54:00,34.4,32.9,30.18,ESE,104,0.0,7.0,94,0.00,,-RA,0.00,0.00,VWS V14.01,2013-01-12 01:54:00,
2013-01-11 20:55:00,34.4,32.9,30.18,ESE,104,0.0,7.0,94,0.00,,-RA,0.00,0.00,VWS V14.01,2013-01-12 01:55:00,
2013-01-11 20:59:00,34.4,32.9,30.18,ESE,104,0.0,7.0,94,0.00,,-RA,0.00,0.00,VWS V14.01,2013-01-12 01:59:00,
2013-01-11 21:01:00,34.5,33.0,30.18,ESE,104,0.0,7.0,94,0.00,,-RA,0.00,0.00,VWS V14.01,2013-01-12 02:01:00,
2013-01-11 21:02:00,34.5,33.0,30.18,ESE,104,0.0,7.0,94,0.00,,-RA,0.00,0.00,VWS V14.01,2013-01-12 02:02:00,
2013-01-11 21:04:00,34.6,33.0,30.17,ESE,117,0.0,7.0,94,0.00,,-RA,0.00,0.00,VWS V14.01,2013-01-12 02:04:00,
2013-01-11 21:06:00,34.6,33.0,30.17,ESE,111,0.0,0.0,94,0.00,,-RA,0.00,0.00,VWS V14.01,2013-01-12 02:06:00,
2013-01-11 21:09:00,34.7,33.2,30.17,SE,138,1.0,2.0,94,0.00,,-RA,0.00,0.00,VWS V14.01,2013-01-12 02:09:00,
2013-01-11 21:11:00,34.7,33.2,30.17,ESE,113,0.0,2.0,94,0.00,,-RA,0.00,0.00,VWS V14.01,2013-01-12 02:11:00,
2013-01-11 21:14:00,34.8,33.2,30.17,ESE,108,0.0,2.0,94,0.00,,-RA,0.00,0.00,VWS V14.01,2013-01-12 02:14:00,
2013-01-11 21:16:00,34.8,33.2,30.17,ESE,108,0.0,2.0,94,0.00,,-RA,0.00,0.00,VWS V14.01,2013-01-12 02:16:00,
2013-01-11 21:18:00,34.8,33.2,30.17,ESE,108,0.0,2.0,94,0.00,,-RA,0.00,0.00,VWS V14.01,2013-01-12 02:18:00,
2013-01-11 21:20:00,34.8,33.2,30.17,ESE,113,0.0,2.0,94,0.00,,-RA,0.00,0.00,VWS V14.01,2013-01-12 02:20:00,
2013-01-11 21:23:00,34.9,33.3,30.17,ESE,113,0.0,2.0,94,0.00,,-RA,0.00,0.00,VWS V14.01,2013-01-12 02:23:00,
2013-01-11 21:25:00,34.9,33.3,30.17,ESE,113,0.0,2.0,94,0.00,,-RA,0.00,0.00,VWS V14.01,2013-01-12 02:25:00,
2013-01-11 21:26:00,34.9,33.3,30.17,ESE,113,0.0,2.0,94,0.00,,-RA,0.00,0.00,VWS V14.01,2013-01-12 02:26:00,
2013-01-11 21:28:00,34.8,33.2,30.17,ESE,113,0.0,2.0,94,0.00,,-RA,0.00,0.00,VWS V14.01,2013-01-12 02:28:00,
2013-01-11 21:30:00,34.9,33.3,30.17,ESE,113,0.0,2.0,94,0.00,,-RA,0.00,0.00,VWS V14.01,2013-01-12 02:30:00,
2013-01-11 21:32:00,34.8,33.2,30.17,ESE,113,0.0,2.0,94,0.00,,-RA,0.00,0.00,VWS V14.01,2013-01-12 02:32:00,
2013-01-11 21:35:00,34.9,33.3,30.17,ESE,115,1.0,2.0,94,0.00,,-RA,0.00,0.00,VWS V14.01,2013-01-12 02:35:00,
2013-01-11 21:37:00,34.9,33.3,30.17,SE,134,2.0,5.0,94,0.00,,-RA,0.00,0.00,VWS V14.01,2013-01-12 02:37:00,
2013-01-11 21:40:00,35.0,33.7,30.16,SE,133,0.0,5.0,95,0.00,,-RA,0.00,0.00,VWS V14.01,2013-01-12 02:40:00,
2013-01-11 21:42:00,35.0,33.7,30.16,SE,133,0.0,5.0,95,0.00,,-RA,0.00,0.00,VWS V14.01,2013-01-12 02:42:00,
2013-01-11 21:44:00,35.0,33.7,30.16,East,96,0.0,5.0,95,0.00,,-RA,0.00,0.00,VWS V14.01,2013-01-12 02:44:00,
2013-01-11 21:45:00,35.0,33.7,30.16,East,95,0.0,5.0,95,0.00,,-RA,0.00,0.00,VWS V14.01,2013-01-12 02:45:00,
2013-01-11 21:47:00,35.1,33.8,30.16,ESE,122,0.0,5.0,95,0.00,,-RA,0.00,0.00,VWS V14.01,2013-01-12 02:47:00,
2013-01-11 21:51:00,35.1,33.8,30.16,ESE,121,0.0,5.0,95,0.00,,-RA,0.00,0.00,VWS V14.01,2013-01-12 02:51:00,
2013-01-11 21:54:00,35.1,33.5,30.16,ESE,121,0.0,5.0,94,0.00,,-RA,0.00,0.00,VWS V14.01,2013-01-12 02:54:00,
2013-01-11 21:56:00,35.1,33.8,30.15,ESE,122,0.0,5.0,95,0.00,,-RA,0.00,0.00,VWS V14.01,2013-01-12 02:56:00,
2013-01-11 21:59:00,35.2,33.9,30.15,ESE,114,0.0,5.0,95,0.00,,-RA,0.00,0.00,VWS V14.01,2013-01-12 02:59:00,
2013-01-11 22:01:00,35.2,33.9,30.15,ESE,115,0.0,5.0,95,0.00,,-RA,0.00,0.00,VWS V14.01,2013-01-12 03:01:00,
2013-01-11 22:03:00,35.2,33.9,30.16,East,98,0.0,5.0,95,0.00,,-RA,0.00,0.00,VWS V14.01,2013-01-12 03:03:00,
2013-01-11 22:04:00,35.3,34.0,30.16,East,98,0.0,5.0,95,0.00,,-RA,0.00,0.00,VWS V14.01,2013-01-12 03:04:00,
2013-01-11 22:06:00,35.2,33.9,30.16,East,94,0.0,1.0,95,0.00,,-RA,0.00,0.00,VWS V14.01,2013-01-12 03:06:00,
2013-01-11 22:10:00,35.3,34.0,30.16,ESE,103,0.0,1.0,95,0.00,,-RA,0.00,0.00,VWS V14.01,2013-01-12 03:10:00,
2013-01-11 22:11:00,35.3,34.0,30.16,ESE,103,0.0,1.0,95,0.00,,-RA,0.00,0.00,VWS V14.01,2013-01-12 03:11:00,
2013-01-11 22:13:00,35.3,34.0,30.16,ESE,103,0.0,1.0,95,0.00,,-RA,0.00,0.00,VWS V14.01,2013-01-12 03:13:00,
2013-01-11 22:16:00,35.4,34.1,30.16,ESE,113,1.0,4.0,95,0.00,,-RA,0.00,0.00,VWS V14.01,2013-01-12 03:16:00,
2013-01-11 22:18:00,35.4,34.1,30.16,ESE,113,0.0,4.0,95,0.00,,-RA,0.00,0.00,VWS V14.01,2013-01-12 03:18:00,
2013-01-11 22:20:00,35.4,34.1,30.16,SE,128,0.0,4.0,95,0.00,,-RA,0.00,0.00,VWS V14.01,2013-01-12 03:20:00,
2013-01-11 22:25:00,35.5,34.2,30.16,SE,138,0.0,5.0,95,0.00,,-RA,0.00,0.00,VWS V14.01,2013-01-12 03:25:00,
2013-01-11 22:28:00,35.5,34.2,30.17,SE,138,0.0,5.0,95,0.00,,-RA,0.00,0.00,VWS V14.01,2013-01-12 03:28:00,
2013-01-11 22:32:00,35.5,34.2,30.17,SE,138,0.0,5.0,95,0.00,,-RA,0.00,0.00,VWS V14.01,2013-01-12 03:32:00,
2013-01-11 22:34:00,35.5,34.2,30.17,SE,138,0.0,5.0,95,0.00,,-RA,0.00,0.00,VWS V14.01,2013-01-12 03:34:00,
2013-01-11 22:35:00,35.5,34.2,30.17,SE,138,0.0,5.0,95,0.00,,-RA,0.00,0.00,VWS V14.01,2013-01-12 03:35:00,
2013-01-11 22:37:00,35.5,34.2,30.17,SE,138,0.0,5.0,95,0.00,,-RA,0.00,0.00,VWS V14.01,2013-01-12 03:37:00,
2013-01-11 22:41:00,35.5,34.2,30.17,SE,138,0.0,5.0,95,0.00,,-RA,0.00,0.00,VWS V14.01,2013-01-12 03:41:00,
2013-01-11 22:44:00,35.5,34.2,30.17,SE,138,0.0,5.0,95,0.00,,-RA,0.00,0.00,VWS V14.01,2013-01-12 03:44:00,
2013-01-11 22:46:00,35.5,34.2,30.17,SE,138,0.0,5.0,95,0.00,,-RA,0.00,0.00,VWS V14.01,2013-01-12 03:46:00,
2013-01-11 22:48:00,35.5,34.2,30.18,SE,138,0.0,5.0,95,0.00,,-RA,0.00,0.00,VWS V14.01,2013-01-12 03:48:00,
2013-01-11 22:49:00,35.5,34.2,30.18,SE,138,0.0,5.0,95,0.00,,-RA,0.00,0.00,VWS V14.01,2013-01-12 03:49:00,
2013-01-11 22:53:00,35.5,34.2,30.17,SE,138,0.0,5.0,95,0.00,,-RA,0.00,0.00,VWS V14.01,2013-01-12 03:53:00,
2013-01-11 22:54:00,35.4,34.1,30.17,SE,138,0.0,5.0,95,0.00,,-RA,0.00,0.00,VWS V14.01,2013-01-12 03:54:00,
2013-01-11 22:56:00,35.4,34.1,30.17,SE,138,0.0,5.0,95,0.00,,-RA,0.00,0.00,VWS V14.01,2013-01-12 03:56:00,
2013-01-11 22:58:00,35.4,34.1,30.17,SE,138,0.0,5.0,95,0.00,,-RA,0.00,0.00,VWS V14.01,2013-01-12 03:58:00,
2013-01-11 23:01:00,35.4,34.1,30.18,SE,138,0.0,5.0,95,0.00,,-RA,0.00,0.00,VWS V14.01,2013-01-12 04:01:00,
2013-01-11 23:05:00,35.4,34.1,30.18,SE,138,0.0,5.0,95,0.00,,-RA,0.00,0.00,VWS V14.01,2013-01-12 04:05:00,
2013-01-11 23:06:00,35.5,34.2,30.18,SE,138,0.0,0.0,95,0.00,,-RA,0.00,0.00,VWS V14.01,2013-01-12 04:06:00,
2013-01-11 23:10:00,35.4,34.1,30.18,SE,138,0.0,0.0,95,0.00,,-RA,0.00,0.00,VWS V14.01,2013-01-12 04:10:00,
2013-01-11 23:12:00,35.4,34.1,30.18,SE,138,0.0,0.0,95,0.00,,-RA,0.00,0.00,VWS V14.01,2013-01-12 04:12:00,
2013-01-11 23:17:00,35.4,34.1,30.18,SE,138,0.0,0.0,95,0.00,,-RA,0.00,0.00,VWS V14.01,2013-01-12 04:17:00,
2013-01-11 23:18:00,35.4,34.1,30.18,SE,138,0.0,0.0,95,0.00,,-RA,0.00,0.00,VWS V14.01,2013-01-12 04:18:00,
2013-01-11 23:20:00,35.4,34.1,30.18,SE,138,0.0,0.0,95,0.00,,-RA,0.00,0.00,VWS V14.01,2013-01-12 04:20:00,
2013-01-11 23:22:00,35.4,34.1,30.18,SE,138,0.0,0.0,95,0.00,,-RA,0.00,0.00,VWS V14.01,2013-01-12 04:22:00,
2013-01-11 23:24:00,35.4,34.1,30.17,SE,138,0.0,0.0,95,0.00,,-RA,0.00,0.00,VWS V14.01,2013-01-12 04:24:00,
2013-01-11 23:25:00,35.4,34.1,30.17,SE,138,0.0,0.0,95,0.00,,-RA,0.00,0.00,VWS V14.01,2013-01-12 04:25:00,
2013-01-11 23:29:00,35.4,34.1,30.17,SE,138,1.0,1.0,95,0.00,,-RA,0.00,0.00,VWS V14.01,2013-01-12 04:29:00,
2013-01-11 23:30:00,35.4,34.1,30.17,SE,138,0.0,1.0,95,0.00,,-RA,0.00,0.00,VWS V14.01,2013-01-12 04:30:00,
2013-01-11 23:36:00,35.5,34.2,30.17,SE,138,0.0,1.0,95,0.00,,-RA,0.00,0.00,VWS V14.01,2013-01-12 04:36:00,
2013-01-11 23:37:00,35.6,34.3,30.17,SE,138,0.0,1.0,95,0.00,,-RA,0.00,0.00,VWS V14.01,2013-01-12 04:37:00,
2013-01-11 23:39:00,35.6,34.3,30.17,SE,138,0.0,1.0,95,0.00,,-RA,0.00,0.00,VWS V14.01,2013-01-12 04:39:00,
2013-01-11 23:41:00,35.6,34.3,30.17,SE,138,0.0,1.0,95,0.00,,-RA,0.00,0.00,VWS V14.01,2013-01-12 04:41:00,
2013-01-11 23:46:00,35.7,34.4,30.16,SE,138,0.0,1.0,95,0.00,,-RA,0.00,0.00,VWS V14.01,2013-01-12 04:46:00,
2013-01-11 23:48:00,35.7,34.4,30.16,SE,138,0.0,1.0,95,0.00,,-RA,0.00,0.00,VWS V14.01,2013-01-12 04:48:00,
2013-01-11 23:49:00,35.7,34.4,30.16,SE,138,0.0,1.0,95,0.00,,-RA,0.00,0.00,VWS V14.01,2013-01-12 04:49:00,
2013-01-11 23:53:00,35.7,34.4,30.16,SE,138,0.0,1.0,95,0.00,,-RA,0.00,0.00,VWS V14.01,2013-01-12 04:53:00,
2013-01-11 23:54:00,35.7,34.4,30.16,SE,138,0.0,1.0,95,0.00,,-RA,0.00,0.00,VWS V14.01,2013-01-12 04:54:00,
2013-01-11 23:58:00,35.8,34.5,30.16,ESE,106,0.0,2.0,95,0.00,,-RA,0.00,0.00,VWS V14.01,2013-01-12 04:58:00,